| time (UTC) | temp C | wind direction | speed KPH | gust KPH | rain 1hr cm | rain 24hr cm | rain mn cm | humidity % | barometer mb |
| 20260508003731 | 18 | 73 | 9.7 | 14.5 | 0.00 | 0.00 | 0.00 | 52 | 1017.5 |
| 20260508003631 | 18 | 81 | 9.7 | 14.5 | 0.00 | 0.00 | 0.00 | 52 | 1017.6 |
| 20260508003530 | 18 | 83 | 9.7 | 14.5 | 0.00 | 0.00 | 0.00 | 52 | 1017.6 |
| 20260508003432 | 18 | 79 | 9.7 | 14.5 | 0.00 | 0.00 | 0.00 | 53 | 1017.6 |
| 20260508003331 | 18 | 89 | 9.7 | 14.5 | 0.00 | 0.00 | 0.00 | 53 | 1017.6 |
| 20260508003232 | 18 | 77 | 9.7 | 14.5 | 0.00 | 0.00 | 0.00 | 52 | 1017.6 |
| 20260508003132 | 18 | 74 | 8.0 | 14.5 | 0.00 | 0.00 | 0.00 | 52 | 1017.6 |
| 20260508003030 | 19 | 73 | 8.0 | 14.5 | 0.00 | 0.00 | 0.00 | 52 | 1017.6 |
| 20260508002931 | 19 | 85 | 6.4 | 12.9 | 0.00 | 0.00 | 0.00 | 52 | 1017.6 |
| 20260508002831 | 19 | 81 | 6.4 | 12.9 | 0.00 | 0.00 | 0.00 | 51 | 1017.6 |
| 20260508002730 | 19 | 72 | 6.4 | 12.9 | 0.00 | 0.00 | 0.00 | 51 | 1017.6 |
| 20260508002632 | 19 | 69 | 4.8 | 11.3 | 0.00 | 0.00 | 0.00 | 50 | 1017.6 |
| 20260508002532 | 19 | 68 | 4.8 | 11.3 | 0.00 | 0.00 | 0.00 | 49 | 1017.6 |
| 20260508002431 | 19 | 87 | 4.8 | 11.3 | 0.00 | 0.00 | 0.00 | 48 | 1017.6 |
| 20260508002333 | 19 | 72 | 4.8 | 11.3 | 0.00 | 0.00 | 0.00 | 48 | 1017.7 |
| 20260508002230 | 19 | 74 | 4.8 | 11.3 | 0.00 | 0.00 | 0.00 | 48 | 1017.5 |
| 20260508002131 | 19 | 81 | 4.8 | 11.3 | 0.00 | 0.00 | 0.00 | 48 | 1017.6 |
| 20260508002031 | 19 | 73 | 4.8 | 11.3 | 0.00 | 0.00 | 0.00 | 48 | 1017.6 |
| 20260508001930 | 19 | 73 | 4.8 | 11.3 | 0.00 | 0.00 | 0.00 | 48 | 1017.6 |
| 20260508001831 | 19 | 76 | 4.8 | 11.3 | 0.00 | 0.00 | 0.00 | 48 | 1017.6 |
| 20260508001730 | 19 | 76 | 4.8 | 11.3 | 0.00 | 0.00 | 0.00 | 48 | 1017.6 |
| 20260508001632 | 19 | 79 | 4.8 | 8.0 | 0.00 | 0.00 | 0.00 | 49 | 1017.5 |
| 20260508001530 | 19 | 82 | 4.8 | 8.0 | 0.00 | 0.00 | 0.00 | 48 | 1017.6 |
| 20260508001433 | 19 | 81 | 4.8 | 8.0 | 0.00 | 0.00 | 0.00 | 49 | 1017.6 |
| 20260508001331 | 19 | 80 | 4.8 | 8.0 | 0.00 | 0.00 | 0.00 | 49 | 1017.5 |
| 20260508001232 | 19 | 89 | 4.8 | 8.0 | 0.00 | 0.00 | 0.00 | 49 | 1017.5 |
| 20260508001130 | 19 | 72 | 4.8 | 8.0 | 0.00 | 0.00 | 0.00 | 49 | 1017.6 |
| 20260508001032 | 19 | 81 | 4.8 | 8.0 | 0.00 | 0.00 | 0.00 | 48 | 1017.6 |
| 20260508000930 | 18 | 82 | 4.8 | 6.4 | 0.00 | 0.00 | 0.00 | 48 | 1017.6 |
| 20260508000831 | 18 | 81 | 4.8 | 6.4 | 0.00 | 0.00 | 0.00 | 48 | 1017.6 |
| 20260508000730 | 18 | 78 | 4.8 | 6.4 | 0.00 | 0.00 | 0.00 | 48 | 1017.6 |
| 20260508000630 | 18 | 83 | 4.8 | 6.4 | 0.00 | 0.00 | 0.00 | 48 | 1017.7 |
| 20260508000533 | 18 | 71 | 3.2 | 6.4 | 0.00 | 0.00 | 0.00 | 48 | 1017.6 |
| 20260508000434 | 18 | 77 | 3.2 | 6.4 | 0.00 | 0.00 | 0.00 | 49 | 1017.7 |
| 20260508000330 | 18 | 87 | 3.2 | 6.4 | 0.00 | 0.00 | 0.00 | 49 | 1017.7 |
| 20260508000230 | 18 | 95 | 3.2 | 6.4 | 0.00 | 0.00 | 0.00 | 49 | 1017.7 |
| 20260508000131 | 18 | 78 | 3.2 | 6.4 | 0.00 | 0.00 | 0.00 | 49 | 1017.7 |
| 20260508000031 | 18 | 86 | 3.2 | 6.4 | 0.00 | 0.00 | 0.00 | 49 | 1017.8 |
| 20260507235931 | 18 | 101 | 3.2 | 6.4 | 0.00 | 0.00 | 0.00 | 49 | 1017.8 |
| 20260507235832 | 18 | 99 | 3.2 | 6.4 | 0.00 | 0.00 | 0.00 | 49 | 1017.7 |
| 20260507235731 | 18 | 85 | 3.2 | 6.4 | 0.00 | 0.00 | 0.00 | 49 | 1017.8 |
| 20260507235633 | 18 | 85 | 3.2 | 6.4 | 0.00 | 0.00 | 0.00 | 49 | 1017.9 |
| 20260507235530 | 18 | 85 | 3.2 | 6.4 | 0.00 | 0.00 | 0.00 | 50 | 1017.9 |
| 20260507235432 | 18 | 84 | 3.2 | 6.4 | 0.00 | 0.00 | 0.00 | 50 | 1017.9 |
| 20260507235331 | 18 | 84 | 3.2 | 6.4 | 0.00 | 0.00 | 0.00 | 50 | 1017.9 |
| 20260507235231 | 18 | 80 | 1.6 | 6.4 | 0.00 | 0.00 | 0.00 | 51 | 1017.8 |
| 20260507235131 | 18 | 76 | 1.6 | 6.4 | 0.00 | 0.00 | 0.00 | 51 | 1017.9 |
| 20260507235031 | 18 | 76 | 1.6 | 6.4 | 0.00 | 0.00 | 0.00 | 52 | 1017.9 |
| 20260507234931 | 18 | 74 | 1.6 | 6.4 | 0.00 | 0.00 | 0.00 | 52 | 1018.0 |
| 20260507234831 | 18 | 71 | 1.6 | 4.8 | 0.00 | 0.00 | 0.00 | 53 | 1018.0 |
| 20260507234732 | 18 | 70 | 1.6 | 4.8 | 0.00 | 0.00 | 0.00 | 53 | 1018.0 |
| 20260507234630 | 18 | 74 | 1.6 | 4.8 | 0.00 | 0.00 | 0.00 | 53 | 1018.0 |
| 20260507234530 | 18 | 74 | 1.6 | 4.8 | 0.00 | 0.00 | 0.00 | 53 | 1018.1 |
| 20260507234430 | 18 | 74 | 1.6 | 4.8 | 0.00 | 0.00 | 0.00 | 53 | 1018.0 |
| 20260507234330 | 18 | 74 | 1.6 | 4.8 | 0.00 | 0.00 | 0.00 | 53 | 1018.1 |
| 20260507234230 | 18 | 74 | 1.6 | 4.8 | 0.00 | 0.00 | 0.00 | 53 | 1018.1 |
| 20260507234131 | 18 | 74 | 1.6 | 4.8 | 0.00 | 0.00 | 0.00 | 53 | 1018.1 |
| 20260507234032 | 18 | 74 | 1.6 | 4.8 | 0.00 | 0.00 | 0.00 | 53 | 1018.2 |
| 20260507233931 | 18 | 73 | 1.6 | 4.8 | 0.00 | 0.00 | 0.00 | 54 | 1018.2 |
| 20260507233830 | 18 | 81 | 1.6 | 4.8 | 0.00 | 0.00 | 0.00 | 54 | 1018.1 |
| 20260507233736 | 18 | 82 | 1.6 | 4.8 | 0.00 | 0.00 | 0.00 | 54 | 1018.1 |
| 20260507233631 | 18 | 82 | 1.6 | 4.8 | 0.00 | 0.00 | 0.00 | 54 | 1018.1 |
| 20260507233531 | 18 | 82 | 1.6 | 4.8 | 0.00 | 0.00 | 0.00 | 54 | 1018.1 |
| 20260507233430 | 18 | 83 | 1.6 | 6.4 | 0.00 | 0.00 | 0.00 | 54 | 1018.1 |
| 20260507233332 | 18 | 84 | 1.6 | 6.4 | 0.00 | 0.00 | 0.00 | 54 | 1018.1 |
| 20260507233232 | 18 | 84 | 1.6 | 6.4 | 0.00 | 0.00 | 0.00 | 54 | 1018.1 |
| 20260507233131 | 18 | 84 | 3.2 | 6.4 | 0.00 | 0.00 | 0.00 | 53 | 1018.2 |
| 20260507233032 | 18 | 84 | 3.2 | 6.4 | 0.00 | 0.00 | 0.00 | 53 | 1018.2 |
| 20260507232931 | 18 | 84 | 3.2 | 6.4 | 0.00 | 0.00 | 0.00 | 53 | 1018.2 |
| 20260507232832 | 18 | 84 | 3.2 | 6.4 | 0.00 | 0.00 | 0.00 | 53 | 1018.2 |
| 20260507232730 | 18 | 84 | 4.8 | 6.4 | 0.00 | 0.00 | 0.00 | 53 | 1018.0 |
| 20260507232630 | 18 | 84 | 3.2 | 6.4 | 0.00 | 0.00 | 0.00 | 53 | 1018.1 |
| 20260507232529 | 18 | 84 | 3.2 | 6.4 | 0.00 | 0.00 | 0.00 | 54 | 1018.0 |
| 20260507232431 | 18 | 85 | 3.2 | 6.4 | 0.00 | 0.00 | 0.00 | 54 | 1018.0 |
| 20260507232332 | 18 | 79 | 3.2 | 6.4 | 0.00 | 0.00 | 0.00 | 54 | 1018.0 |
| 20260507232232 | 18 | 79 | 3.2 | 6.4 | 0.00 | 0.00 | 0.00 | 54 | 1018.0 |
| 20260507232131 | 18 | 77 | 3.2 | 6.4 | 0.00 | 0.00 | 0.00 | 54 | 1018.0 |
| 20260507232032 | 18 | 76 | 1.6 | 6.4 | 0.00 | 0.00 | 0.00 | 55 | 1018.0 |
| 20260507231930 | 18 | 74 | 1.6 | 6.4 | 0.00 | 0.00 | 0.00 | 55 | 1018.0 |
| 20260507231830 | 18 | 75 | 1.6 | 6.4 | 0.00 | 0.00 | 0.00 | 55 | 1018.0 |
| 20260507231732 | 18 | 74 | 1.6 | 4.8 | 0.00 | 0.00 | 0.00 | 55 | 1018.1 |
| 20260507231631 | 18 | 74 | 1.6 | 4.8 | 0.00 | 0.00 | 0.00 | 55 | 1018.1 |
| 20260507231532 | 18 | 74 | 1.6 | 4.8 | 0.00 | 0.00 | 0.00 | 55 | 1018.2 |
| 20260507231432 | 18 | 74 | 1.6 | 4.8 | 0.00 | 0.00 | 0.00 | 56 | 1018.1 |
| 20260507231330 | 18 | 74 | 1.6 | 4.8 | 0.00 | 0.00 | 0.00 | 55 | 1018.1 |
| 20260507231230 | 18 | 74 | 0.0 | 3.2 | 0.00 | 0.00 | 0.00 | 55 | 1018.2 |
| 20260507231132 | 18 | 74 | 0.0 | 3.2 | 0.00 | 0.00 | 0.00 | 55 | 1018.2 |
| 20260507231032 | 18 | 74 | 0.0 | 3.2 | 0.00 | 0.00 | 0.00 | 55 | 1018.1 |
| 20260507230931 | 18 | 74 | 0.0 | 3.2 | 0.00 | 0.00 | 0.00 | 55 | 1018.2 |
| 20260507230831 | 18 | 74 | 0.0 | 3.2 | 0.00 | 0.00 | 0.00 | 55 | 1018.2 |
| 20260507230733 | 18 | 74 | 0.0 | 0.0 | 0.00 | 0.00 | 0.00 | 55 | 1018.3 |
| 20260507230630 | 18 | 74 | 0.0 | 0.0 | 0.00 | 0.00 | 0.00 | 54 | 1018.2 |
| 20260507230529 | 18 | 74 | 0.0 | 0.0 | 0.00 | 0.00 | 0.00 | 54 | 1018.3 |
| 20260507230432 | 18 | 74 | 0.0 | 0.0 | 0.00 | 0.00 | 0.00 | 54 | 1018.3 |
| 20260507230331 | 18 | 74 | 0.0 | 0.0 | 0.00 | 0.00 | 0.00 | 54 | 1018.4 |
| 20260507230230 | 18 | 74 | 0.0 | 0.0 | 0.00 | 0.00 | 0.00 | 54 | 1018.3 |
| 20260507230131 | 18 | 74 | 0.0 | 0.0 | 0.00 | 0.00 | 0.00 | 54 | 1018.3 |
| 20260507230030 | 18 | 74 | 0.0 | 0.0 | 0.00 | 0.00 | 0.00 | 54 | 1018.3 |
| 20260507225933 | 18 | 74 | 0.0 | 0.0 | 0.00 | 0.00 | 0.00 | 54 | 1018.4 |
| 20260507225832 | 18 | 74 | 0.0 | 0.0 | 0.00 | 0.00 | 0.00 | 54 | 1018.4 |
| 20260507225731 | 18 | 74 | 0.0 | 0.0 | 0.00 | 0.00 | 0.00 | 55 | 1018.4 |
| 20260507225631 | 18 | 74 | 0.0 | 0.0 | 0.00 | 0.00 | 0.00 | 55 | 1018.4 |
| 20260507225532 | 18 | 74 | 0.0 | 0.0 | 0.00 | 0.00 | 0.00 | 55 | 1018.4 |
| 20260507225431 | 18 | 74 | 0.0 | 0.0 | 0.00 | 0.00 | 0.00 | 55 | 1018.4 |
| 20260507225330 | 18 | 74 | 0.0 | 1.6 | 0.00 | 0.00 | 0.00 | 55 | 1018.5 |
| 20260507225231 | 18 | 74 | 0.0 | 3.2 | 0.00 | 0.00 | 0.00 | 55 | 1018.5 |
| 20260507225133 | 18 | 74 | 0.0 | 3.2 | 0.00 | 0.00 | 0.00 | 55 | 1018.4 |
| 20260507225031 | 18 | 74 | 0.0 | 3.2 | 0.00 | 0.00 | 0.00 | 55 | 1018.5 |
| 20260507224929 | 18 | 74 | 0.0 | 3.2 | 0.00 | 0.00 | 0.00 | 55 | 1018.6 |
| 20260507224831 | 18 | 74 | 0.0 | 3.2 | 0.00 | 0.00 | 0.00 | 55 | 1018.5 |
| 20260507224730 | 18 | 74 | 0.0 | 3.2 | 0.00 | 0.00 | 0.00 | 55 | 1018.6 |
| 20260507224632 | 18 | 74 | 0.0 | 3.2 | 0.00 | 0.00 | 0.00 | 55 | 1018.6 |
| 20260507224530 | 18 | 74 | 0.0 | 3.2 | 0.00 | 0.00 | 0.00 | 55 | 1018.6 |
| 20260507224431 | 18 | 74 | 0.0 | 3.2 | 0.00 | 0.00 | 0.00 | 55 | 1018.5 |
| 20260507224331 | 18 | 74 | 0.0 | 3.2 | 0.00 | 0.00 | 0.00 | 54 | 1018.6 |
| 20260507224231 | 18 | 74 | 0.0 | 3.2 | 0.00 | 0.00 | 0.00 | 54 | 1018.6 |
| 20260507224130 | 18 | 74 | 0.0 | 3.2 | 0.00 | 0.00 | 0.00 | 54 | 1018.6 |
| 20260507224031 | 18 | 74 | 0.0 | 3.2 | 0.00 | 0.00 | 0.00 | 54 | 1018.6 |
| 20260507223930 | 18 | 74 | 0.0 | 1.6 | 0.00 | 0.00 | 0.00 | 53 | 1018.6 |
| 20260507223832 | 18 | 74 | 0.0 | 0.0 | 0.00 | 0.00 | 0.00 | 53 | 1018.6 |
| 20260507223732 | 18 | 74 | 0.0 | 0.0 | 0.00 | 0.00 | 0.00 | 53 | 1018.7 |
| 20260507223630 | 18 | 74 | 0.0 | 0.0 | 0.00 | 0.00 | 0.00 | 53 | 1018.7 |
| 20260507223532 | 18 | 74 | 0.0 | 0.0 | 0.00 | 0.00 | 0.00 | 53 | 1018.7 |
| 20260507223432 | 18 | 74 | 0.0 | 0.0 | 0.00 | 0.00 | 0.00 | 53 | 1018.7 |
| 20260507223331 | 18 | 74 | 0.0 | 1.6 | 0.00 | 0.00 | 0.00 | 53 | 1018.7 |
| 20260507223230 | 18 | 74 | 0.0 | 3.2 | 0.00 | 0.00 | 0.00 | 53 | 1018.7 |
| 20260507223132 | 18 | 74 | 0.0 | 4.8 | 0.00 | 0.00 | 0.00 | 53 | 1018.6 |
| 20260507223032 | 18 | 74 | 0.0 | 4.8 | 0.00 | 0.00 | 0.00 | 54 | 1018.7 |
| 20260507222930 | 18 | 74 | 1.6 | 4.8 | 0.00 | 0.00 | 0.00 | 53 | 1018.6 |
| 20260507222830 | 18 | 74 | 1.6 | 4.8 | 0.00 | 0.00 | 0.00 | 53 | 1018.6 |
| 20260507222730 | 18 | 74 | 1.6 | 4.8 | 0.00 | 0.00 | 0.00 | 53 | 1018.5 |
| 20260507222633 | 18 | 74 | 1.6 | 4.8 | 0.00 | 0.00 | 0.00 | 53 | 1018.5 |
| 20260507222530 | 18 | 74 | 1.6 | 4.8 | 0.00 | 0.00 | 0.00 | 53 | 1018.5 |
| 20260507222430 | 18 | 74 | 1.6 | 4.8 | 0.00 | 0.00 | 0.00 | 54 | 1018.5 |
| 20260507222331 | 18 | 74 | 1.6 | 4.8 | 0.00 | 0.00 | 0.00 | 53 | 1018.5 |
| 20260507222230 | 18 | 74 | 1.6 | 6.4 | 0.00 | 0.00 | 0.00 | 53 | 1018.5 |
| 20260507222137 | 18 | 74 | 1.6 | 6.4 | 0.00 | 0.00 | 0.00 | 53 | 1018.5 |
| 20260507222031 | 18 | 74 | 3.2 | 6.4 | 0.00 | 0.00 | 0.00 | 52 | 1018.5 |
| 20260507221930 | 18 | 74 | 3.2 | 6.4 | 0.00 | 0.00 | 0.00 | 52 | 1018.5 |
| 20260507221832 | 18 | 74 | 3.2 | 6.4 | 0.00 | 0.00 | 0.00 | 52 | 1018.5 |
| 20260507221730 | 18 | 74 | 3.2 | 6.4 | 0.00 | 0.00 | 0.00 | 51 | 1018.5 |
| 20260507221632 | 18 | 74 | 3.2 | 6.4 | 0.00 | 0.00 | 0.00 | 51 | 1018.5 |
| 20260507221530 | 18 | 74 | 3.2 | 6.4 | 0.00 | 0.00 | 0.00 | 51 | 1018.6 |
| 20260507221431 | 18 | 74 | 3.2 | 6.4 | 0.00 | 0.00 | 0.00 | 51 | 1018.6 |
| 20260507221330 | 18 | 76 | 3.2 | 6.4 | 0.00 | 0.00 | 0.00 | 51 | 1018.5 |
| 20260507221235 | 18 | 79 | 3.2 | 6.4 | 0.00 | 0.00 | 0.00 | 51 | 1018.5 |
| 20260507221129 | 18 | 74 | 1.6 | 6.4 | 0.00 | 0.00 | 0.00 | 51 | 1018.5 |
| 20260507221031 | 18 | 70 | 1.6 | 4.8 | 0.00 | 0.00 | 0.00 | 52 | 1018.6 |
| 20260507220931 | 18 | 70 | 1.6 | 4.8 | 0.00 | 0.00 | 0.00 | 52 | 1018.5 |
| 20260507220831 | 18 | 73 | 1.6 | 4.8 | 0.00 | 0.00 | 0.00 | 52 | 1018.6 |
| 20260507220730 | 18 | 70 | 0.0 | 4.8 | 0.00 | 0.00 | 0.00 | 52 | 1018.6 |
| 20260507220631 | 18 | 72 | 0.0 | 3.2 | 0.00 | 0.00 | 0.00 | 52 | 1018.6 |
| 20260507220530 | 18 | 72 | 0.0 | 3.2 | 0.00 | 0.00 | 0.00 | 52 | 1018.7 |
| 20260507220431 | 18 | 72 | 0.0 | 3.2 | 0.00 | 0.00 | 0.00 | 52 | 1018.6 |
| 20260507220331 | 18 | 72 | 0.0 | 3.2 | 0.00 | 0.00 | 0.00 | 52 | 1018.5 |
| 20260507220233 | 18 | 72 | 0.0 | 3.2 | 0.00 | 0.00 | 0.00 | 53 | 1018.6 |
| 20260507220131 | 18 | 72 | 0.0 | 3.2 | 0.00 | 0.00 | 0.00 | 53 | 1018.6 |
| 20260507220030 | 18 | 72 | 0.0 | 3.2 | 0.00 | 0.00 | 0.00 | 53 | 1018.6 |
| 20260507215930 | 18 | 72 | 0.0 | 3.2 | 0.00 | 0.00 | 0.00 | 53 | 1018.6 |
| 20260507215830 | 18 | 72 | 0.0 | 3.2 | 0.00 | 0.00 | 0.00 | 53 | 1018.6 |
| 20260507215730 | 18 | 72 | 0.0 | 3.2 | 0.00 | 0.00 | 0.00 | 53 | 1018.7 |
| 20260507215631 | 18 | 72 | 0.0 | 3.2 | 0.00 | 0.00 | 0.00 | 53 | 1018.6 |
| 20260507215530 | 18 | 72 | 0.0 | 3.2 | 0.00 | 0.00 | 0.00 | 53 | 1018.6 |
| 20260507215433 | 18 | 72 | 0.0 | 3.2 | 0.00 | 0.00 | 0.00 | 53 | 1018.7 |
| 20260507215330 | 18 | 72 | 0.0 | 4.8 | 0.00 | 0.00 | 0.00 | 53 | 1018.7 |
| 20260507215231 | 18 | 72 | 0.0 | 4.8 | 0.00 | 0.00 | 0.00 | 53 | 1018.6 |
| 20260507215130 | 18 | 72 | 0.0 | 4.8 | 0.00 | 0.00 | 0.00 | 53 | 1018.7 |
| 20260507215031 | 18 | 72 | 1.6 | 4.8 | 0.00 | 0.00 | 0.00 | 52 | 1018.6 |
| 20260507214930 | 18 | 72 | 1.6 | 4.8 | 0.00 | 0.00 | 0.00 | 52 | 1018.6 |
| 20260507214831 | 18 | 72 | 1.6 | 4.8 | 0.00 | 0.00 | 0.00 | 52 | 1018.7 |
| 20260507214731 | 18 | 72 | 1.6 | 6.4 | 0.00 | 0.00 | 0.00 | 52 | 1018.6 |
| 20260507214632 | 18 | 72 | 1.6 | 6.4 | 0.00 | 0.00 | 0.00 | 52 | 1018.6 |
| 20260507214530 | 18 | 72 | 1.6 | 6.4 | 0.00 | 0.00 | 0.00 | 52 | 1018.6 |
| 20260507214430 | 18 | 72 | 1.6 | 6.4 | 0.00 | 0.00 | 0.00 | 52 | 1018.7 |
| 20260507214331 | 18 | 72 | 1.6 | 6.4 | 0.00 | 0.00 | 0.00 | 52 | 1018.6 |
| 20260507214231 | 18 | 72 | 1.6 | 6.4 | 0.00 | 0.00 | 0.00 | 52 | 1018.7 |
| 20260507214131 | 18 | 72 | 1.6 | 6.4 | 0.00 | 0.00 | 0.00 | 52 | 1018.6 |
| 20260507214031 | 18 | 72 | 1.6 | 6.4 | 0.00 | 0.00 | 0.00 | 52 | 1018.6 |
| 20260507213930 | 18 | 72 | 1.6 | 6.4 | 0.00 | 0.00 | 0.00 | 52 | 1018.7 |
| 20260507213832 | 18 | 74 | 1.6 | 6.4 | 0.00 | 0.00 | 0.00 | 52 | 1018.6 |
| 20260507213731 | 18 | 75 | 0.0 | 4.8 | 0.00 | 0.00 | 0.00 | 52 | 1018.7 |
| 20260507213630 | 18 | 76 | 0.0 | 4.8 | 0.00 | 0.00 | 0.00 | 52 | 1018.7 |
| 20260507213531 | 18 | 76 | 0.0 | 3.2 | 0.00 | 0.00 | 0.00 | 52 | 1018.8 |
| 20260507213431 | 19 | 76 | 0.0 | 1.6 | 0.00 | 0.00 | 0.00 | 52 | 1018.9 |
| 20260507213332 | 19 | 76 | 0.0 | 1.6 | 0.00 | 0.00 | 0.00 | 51 | 1018.8 |
| 20260507213232 | 19 | 76 | 0.0 | 1.6 | 0.00 | 0.00 | 0.00 | 51 | 1018.8 |
| 20260507213130 | 19 | 76 | 0.0 | 1.6 | 0.00 | 0.00 | 0.00 | 51 | 1018.9 |
| 20260507213026 | 19 | 76 | 0.0 | 1.6 | 0.00 | 0.00 | 0.00 | 51 | 1018.9 |
| 20260507212926 | 19 | 76 | 0.0 | 1.6 | 0.00 | 0.00 | 0.00 | 51 | 1018.9 |
| 20260507212825 | 19 | 76 | 0.0 | 1.6 | 0.00 | 0.00 | 0.00 | 51 | 1018.9 |
| 20260507212726 | 19 | 76 | 0.0 | 1.6 | 0.00 | 0.00 | 0.00 | 51 | 1018.9 |
| 20260507212624 | 19 | 76 | 0.0 | 3.2 | 0.00 | 0.00 | 0.00 | 50 | 1019.0 |
| 20260507212522 | 19 | 76 | 0.0 | 3.2 | 0.00 | 0.00 | 0.00 | 50 | 1018.9 |
| 20260507212419 | 19 | 76 | 1.6 | 4.8 | 0.00 | 0.00 | 0.00 | 50 | 1018.9 |
| 20260507212315 | 19 | 76 | 1.6 | 6.4 | 0.00 | 0.00 | 0.00 | 50 | 1018.9 |
| 20260507212213 | 19 | 76 | 1.6 | 6.4 | 0.00 | 0.00 | 0.00 | 50 | 1018.9 |
| 20260507212112 | 19 | 76 | 1.6 | 6.4 | 0.00 | 0.00 | 0.00 | 50 | 1018.8 |
| 20260507212022 | 19 | 76 | 1.6 | 6.4 | 0.00 | 0.00 | 0.00 | 50 | 1018.8 |
| 20260507211913 | 19 | 76 | 3.2 | 6.4 | 0.00 | 0.00 | 0.00 | 50 | 1018.8 |
| 20260507211810 | 19 | 76 | 3.2 | 6.4 | 0.00 | 0.00 | 0.00 | 50 | 1018.7 |
| 20260507211705 | 19 | 76 | 3.2 | 6.4 | 0.00 | 0.00 | 0.00 | 49 | 1018.7 |
| 20260507211605 | 19 | 76 | 3.2 | 6.4 | 0.00 | 0.00 | 0.00 | 49 | 1018.7 |
| 20260507211507 | 19 | 76 | 1.6 | 6.4 | 0.00 | 0.00 | 0.00 | 49 | 1018.6 |
| 20260507211405 | 19 | 74 | 1.6 | 6.4 | 0.00 | 0.00 | 0.00 | 48 | 1018.6 |
| 20260507211304 | 19 | 74 | 1.6 | 4.8 | 0.00 | 0.00 | 0.00 | 48 | 1018.6 |
| 20260507211203 | 19 | 74 | 1.6 | 4.8 | 0.00 | 0.00 | 0.00 | 48 | 1018.5 |
| 20260507211103 | 19 | 74 | 1.6 | 4.8 | 0.00 | 0.00 | 0.00 | 48 | 1018.6 |
| 20260507211005 | 19 | 74 | 1.6 | 4.8 | 0.00 | 0.00 | 0.00 | 48 | 1018.5 |
| 20260507210904 | 19 | 74 | 1.6 | 4.8 | 0.00 | 0.00 | 0.00 | 48 | 1018.5 |
| 20260507210804 | 19 | 74 | 1.6 | 4.8 | 0.00 | 0.00 | 0.00 | 48 | 1018.5 |
| 20260507210705 | 19 | 74 | 1.6 | 4.8 | 0.00 | 0.00 | 0.00 | 47 | 1018.5 |
| 20260507210603 | 19 | 74 | 1.6 | 4.8 | 0.00 | 0.00 | 0.00 | 47 | 1018.5 |
| 20260507210504 | 19 | 74 | 1.6 | 4.8 | 0.00 | 0.00 | 0.00 | 47 | 1018.5 |
| 20260507210402 | 19 | 74 | 1.6 | 4.8 | 0.00 | 0.00 | 0.00 | 46 | 1018.6 |
| 20260507210304 | 19 | 74 | 1.6 | 4.8 | 0.00 | 0.00 | 0.00 | 46 | 1018.6 |
| 20260507210203 | 19 | 74 | 1.6 | 4.8 | 0.00 | 0.00 | 0.00 | 46 | 1018.6 |
| 20260507210006 | 19 | 74 | 0.0 | 4.8 | 0.00 | 0.00 | 0.00 | 46 | 1018.6 |
| 20260507205905 | 19 | 74 | 0.0 | 4.8 | 0.00 | 0.00 | 0.00 | 46 | 1018.6 |
| 20260507205803 | 19 | 74 | 0.0 | 4.8 | 0.00 | 0.00 | 0.00 | 46 | 1018.7 |
| 20260507205704 | 19 | 75 | 0.0 | 3.2 | 0.00 | 0.00 | 0.00 | 47 | 1018.5 |
| 20260507205603 | 19 | 74 | 0.0 | 0.0 | 0.00 | 0.00 | 0.00 | 47 | 1018.6 |
| 20260507205504 | 19 | 75 | 0.0 | 0.0 | 0.00 | 0.00 | 0.00 | 46 | 1018.7 |
| 20260507205404 | 19 | 75 | 0.0 | 0.0 | 0.00 | 0.00 | 0.00 | 46 | 1018.6 |
| 20260507205306 | 19 | 75 | 0.0 | 0.0 | 0.00 | 0.00 | 0.00 | 46 | 1018.6 |
| 20260507205200 | 19 | 74 | 0.0 | 0.0 | 0.00 | 0.00 | 0.00 | 46 | 1018.6 |
| 20260507205104 | 19 | 75 | 0.0 | 0.0 | 0.00 | 0.00 | 0.00 | 46 | 1018.7 |
| 20260507204954 | 19 | 75 | 0.0 | 4.8 | 0.00 | 0.00 | 0.00 | 46 | 1018.7 |
| 20260507204853 | 19 | 75 | 1.6 | 4.8 | 0.00 | 0.00 | 0.00 | 46 | 1018.7 |
| 20260507204753 | 19 | 75 | 1.6 | 4.8 | 0.00 | 0.00 | 0.00 | 46 | 1018.6 |
| 20260507204653 | 19 | 75 | 1.6 | 4.8 | 0.00 | 0.00 | 0.00 | 46 | 1018.7 |
| 20260507204546 | 20 | 75 | 1.6 | 4.8 | 0.00 | 0.00 | 0.00 | 45 | 1018.7 |
| 20260507204447 | 20 | 75 | 1.6 | 4.8 | 0.00 | 0.00 | 0.00 | 44 | 1018.7 |
| 20260507204349 | 20 | 75 | 1.6 | 4.8 | 0.00 | 0.00 | 0.00 | 43 | 1018.6 |
| 20260507204247 | 20 | 75 | 1.6 | 4.8 | 0.00 | 0.00 | 0.00 | 41 | 1018.6 |
| 20260507204148 | 20 | 75 | 1.6 | 4.8 | 0.00 | 0.00 | 0.00 | 41 | 1018.6 |
| 20260507204044 | 20 | 75 | 1.6 | 4.8 | 0.00 | 0.00 | 0.00 | 41 | 1018.6 |
| 20260507203940 | 20 | 75 | 1.6 | 4.8 | 0.00 | 0.00 | 0.00 | 41 | 1018.5 |
| 20260507203841 | 20 | 75 | 1.6 | 4.8 | 0.00 | 0.00 | 0.00 | 41 | 1018.5 |
| 20260507203741 | 20 | 76 | 1.6 | 4.8 | 0.00 | 0.00 | 0.00 | 42 | 1018.5 |
| 20260507203642 | 20 | 75 | 1.6 | 6.4 | 0.00 | 0.00 | 0.00 | 42 | 1018.5 |
| 20260507203538 | 20 | 75 | 1.6 | 6.4 | 0.00 | 0.00 | 0.00 | 42 | 1018.4 |
| 20260507203436 | 20 | 75 | 1.6 | 8.0 | 0.00 | 0.00 | 0.00 | 42 | 1018.3 |
| 20260507203334 | 20 | 75 | 3.2 | 8.0 | 0.00 | 0.00 | 0.00 | 42 | 1018.4 |
| 20260507203236 | 20 | 75 | 3.2 | 8.0 | 0.00 | 0.00 | 0.00 | 43 | 1018.4 |
| 20260507203134 | 20 | 75 | 3.2 | 8.0 | 0.00 | 0.00 | 0.00 | 43 | 1018.5 |
| 20260507203037 | 20 | 75 | 4.8 | 8.0 | 0.00 | 0.00 | 0.00 | 43 | 1018.5 |
| 20260507202932 | 20 | 75 | 4.8 | 8.0 | 0.00 | 0.00 | 0.00 | 43 | 1018.5 |
| 20260507202834 | 20 | 75 | 4.8 | 8.0 | 0.00 | 0.00 | 0.00 | 43 | 1018.5 |
| 20260507202732 | 20 | 73 | 4.8 | 8.0 | 0.00 | 0.00 | 0.00 | 43 | 1018.5 |
| 20260507202632 | 20 | 76 | 4.8 | 8.0 | 0.00 | 0.00 | 0.00 | 43 | 1018.4 |
| 20260507202534 | 20 | 74 | 4.8 | 8.0 | 0.00 | 0.00 | 0.00 | 43 | 1018.4 |
| 20260507202432 | 20 | 67 | 4.8 | 8.0 | 0.00 | 0.00 | 0.00 | 43 | 1018.3 |
| 20260507202330 | 20 | 70 | 4.8 | 9.7 | 0.00 | 0.00 | 0.00 | 43 | 1018.4 |
| 20260507202232 | 20 | 67 | 4.8 | 11.3 | 0.00 | 0.00 | 0.00 | 42 | 1018.3 |
| 20260507202130 | 20 | 71 | 4.8 | 11.3 | 0.00 | 0.00 | 0.00 | 42 | 1018.4 |
| 20260507202033 | 20 | 83 | 4.8 | 11.3 | 0.00 | 0.00 | 0.00 | 43 | 1018.4 |
| 20260507201931 | 20 | 83 | 4.8 | 11.3 | 0.00 | 0.00 | 0.00 | 43 | 1018.4 |
| 20260507201834 | 20 | 71 | 4.8 | 11.3 | 0.00 | 0.00 | 0.00 | 44 | 1018.3 |
| 20260507201732 | 20 | 70 | 6.4 | 11.3 | 0.00 | 0.00 | 0.00 | 45 | 1018.4 |
| 20260507201632 | 20 | 70 | 6.4 | 11.3 | 0.00 | 0.00 | 0.00 | 45 | 1018.4 |
| 20260507201532 | 20 | 76 | 6.4 | 11.3 | 0.00 | 0.00 | 0.00 | 45 | 1018.3 |
| 20260507201433 | 20 | 70 | 6.4 | 11.3 | 0.00 | 0.00 | 0.00 | 44 | 1018.3 |
| 20260507201330 | 20 | 76 | 6.4 | 11.3 | 0.00 | 0.00 | 0.00 | 44 | 1018.3 |
| 20260507201231 | 20 | 67 | 6.4 | 11.3 | 0.00 | 0.00 | 0.00 | 43 | 1018.3 |
| 20260507201131 | 20 | 72 | 6.4 | 11.3 | 0.00 | 0.00 | 0.00 | 43 | 1018.2 |
| 20260507201044 | 20 | 79 | 6.4 | 11.3 | 0.00 | 0.00 | 0.00 | 43 | 1018.2 |
| 20260507200932 | 20 | 74 | 4.8 | 11.3 | 0.00 | 0.00 | 0.00 | 43 | 1018.3 |
| 20260507200833 | 20 | 77 | 4.8 | 11.3 | 0.00 | 0.00 | 0.00 | 42 | 1018.2 |
| 20260507200730 | 20 | 91 | 4.8 | 11.3 | 0.00 | 0.00 | 0.00 | 41 | 1018.3 |
| 20260507200632 | 19 | 75 | 4.8 | 11.3 | 0.00 | 0.00 | 0.00 | 41 | 1018.2 |
| 20260507200531 | 19 | 72 | 4.8 | 11.3 | 0.00 | 0.00 | 0.00 | 42 | 1018.2 |
| 20260507200431 | 19 | 75 | 4.8 | 11.3 | 0.00 | 0.00 | 0.00 | 42 | 1018.3 |
| 20260507200332 | 19 | 76 | 4.8 | 11.3 | 0.00 | 0.00 | 0.00 | 43 | 1018.2 |
| 20260507200230 | 19 | 77 | 3.2 | 8.0 | 0.00 | 0.00 | 0.00 | 43 | 1018.2 |
| 20260507200133 | 19 | 80 | 3.2 | 8.0 | 0.00 | 0.00 | 0.00 | 43 | 1018.2 |
| 20260507200050 | 19 | 79 | 3.2 | 8.0 | 0.00 | 0.00 | 0.00 | 43 | 1018.2 |
| 20260507195932 | 19 | 78 | 3.2 | 6.4 | 0.00 | 0.00 | 0.00 | 43 | 1018.2 |
| 20260507195834 | 19 | 79 | 3.2 | 6.4 | 0.00 | 0.00 | 0.00 | 43 | 1018.2 |
| 20260507195732 | 19 | 76 | 3.2 | 6.4 | 0.00 | 0.00 | 0.00 | 44 | 1018.3 |
| 20260507195631 | 19 | 72 | 3.2 | 6.4 | 0.00 | 0.00 | 0.00 | 44 | 1018.4 |
| 20260507195530 | 19 | 72 | 3.2 | 6.4 | 0.00 | 0.00 | 0.00 | 44 | 1018.4 |
| 20260507195430 | 19 | 73 | 3.2 | 6.4 | 0.00 | 0.00 | 0.00 | 44 | 1018.4 |
| 20260507195334 | 19 | 73 | 3.2 | 6.4 | 0.00 | 0.00 | 0.00 | 44 | 1018.4 |
| 20260507195231 | 19 | 73 | 3.2 | 6.4 | 0.00 | 0.00 | 0.00 | 44 | 1018.5 |
| 20260507195132 | 19 | 73 | 3.2 | 6.4 | 0.00 | 0.00 | 0.00 | 44 | 1018.5 |
| 20260507195030 | 19 | 73 | 3.2 | 6.4 | 0.00 | 0.00 | 0.00 | 44 | 1018.5 |
| 20260507194931 | 19 | 73 | 3.2 | 6.4 | 0.00 | 0.00 | 0.00 | 44 | 1018.5 |
| 20260507194833 | 19 | 73 | 3.2 | 6.4 | 0.00 | 0.00 | 0.00 | 44 | 1018.6 |
| 20260507194731 | 19 | 74 | 3.2 | 6.4 | 0.00 | 0.00 | 0.00 | 44 | 1018.6 |
| 20260507194631 | 19 | 75 | 3.2 | 6.4 | 0.00 | 0.00 | 0.00 | 44 | 1018.6 |
| 20260507194533 | 19 | 74 | 3.2 | 6.4 | 0.00 | 0.00 | 0.00 | 44 | 1018.6 |
| 20260507194432 | 19 | 75 | 3.2 | 4.8 | 0.00 | 0.00 | 0.00 | 45 | 1018.6 |
| 20260507194333 | 19 | 74 | 3.2 | 4.8 | 0.00 | 0.00 | 0.00 | 45 | 1018.6 |
| 20260507194232 | 19 | 75 | 3.2 | 4.8 | 0.00 | 0.00 | 0.00 | 45 | 1018.6 |
| 20260507194131 | 19 | 74 | 3.2 | 4.8 | 0.00 | 0.00 | 0.00 | 45 | 1018.6 |
| 20260507194031 | 19 | 74 | 3.2 | 4.8 | 0.00 | 0.00 | 0.00 | 45 | 1018.6 |
| 20260507193931 | 19 | 74 | 3.2 | 4.8 | 0.00 | 0.00 | 0.00 | 44 | 1018.6 |
| 20260507193834 | 19 | 76 | 1.6 | 4.8 | 0.00 | 0.00 | 0.00 | 44 | 1018.5 |
| 20260507193732 | 19 | 77 | 1.6 | 4.8 | 0.00 | 0.00 | 0.00 | 44 | 1018.7 |
| 20260507193631 | 19 | 77 | 1.6 | 4.8 | 0.00 | 0.00 | 0.00 | 44 | 1018.5 |
| 20260507193531 | 19 | 78 | 1.6 | 4.8 | 0.00 | 0.00 | 0.00 | 44 | 1018.6 |
| 20260507193430 | 19 | 79 | 1.6 | 4.8 | 0.00 | 0.00 | 0.00 | 44 | 1018.6 |
| 20260507193331 | 19 | 79 | 0.0 | 3.2 | 0.00 | 0.00 | 0.00 | 45 | 1018.6 |
| 20260507193249 | 19 | 79 | 0.0 | 3.2 | 0.00 | 0.00 | 0.00 | 45 | 1018.5 |
| 20260507193131 | 19 | 79 | 0.0 | 3.2 | 0.00 | 0.00 | 0.00 | 45 | 1018.6 |
| 20260507193032 | 19 | 79 | 0.0 | 3.2 | 0.00 | 0.00 | 0.00 | 45 | 1018.6 |
| 20260507192932 | 19 | 79 | 0.0 | 3.2 | 0.00 | 0.00 | 0.00 | 45 | 1018.5 |
| 20260507192833 | 19 | 79 | 0.0 | 3.2 | 0.00 | 0.00 | 0.00 | 45 | 1018.6 |
| 20260507192731 | 19 | 79 | 0.0 | 4.8 | 0.00 | 0.00 | 0.00 | 45 | 1018.5 |
| 20260507192632 | 19 | 79 | 1.6 | 4.8 | 0.00 | 0.00 | 0.00 | 45 | 1018.5 |
| 20260507192531 | 19 | 79 | 1.6 | 4.8 | 0.00 | 0.00 | 0.00 | 45 | 1018.6 |
| 20260507192432 | 19 | 79 | 1.6 | 6.4 | 0.00 | 0.00 | 0.00 | 46 | 1018.5 |
| 20260507192332 | 19 | 79 | 1.6 | 6.4 | 0.00 | 0.00 | 0.00 | 46 | 1018.5 |
| 20260507192226 | 19 | 79 | 3.2 | 6.4 | 0.00 | 0.00 | 0.00 | 46 | 1018.5 |
| 20260507192128 | 19 | 79 | 3.2 | 6.4 | 0.00 | 0.00 | 0.00 | 46 | 1018.5 |
| 20260507192028 | 19 | 79 | 3.2 | 8.0 | 0.00 | 0.00 | 0.00 | 46 | 1018.6 |
| 20260507191927 | 19 | 79 | 4.8 | 8.0 | 0.00 | 0.00 | 0.00 | 46 | 1018.5 |
| 20260507191825 | 19 | 79 | 4.8 | 12.9 | 0.00 | 0.00 | 0.00 | 47 | 1018.6 |
| 20260507191718 | 19 | 79 | 4.8 | 12.9 | 0.00 | 0.00 | 0.00 | 47 | 1018.5 |
| 20260507191619 | 19 | 79 | 6.4 | 12.9 | 0.00 | 0.00 | 0.00 | 47 | 1018.6 |
| 20260507191524 | 19 | 81 | 6.4 | 12.9 | 0.00 | 0.00 | 0.00 | 48 | 1018.6 |
| 20260507191424 | 19 | 81 | 6.4 | 12.9 | 0.00 | 0.00 | 0.00 | 49 | 1018.6 |
| 20260507191318 | 19 | 80 | 6.4 | 12.9 | 0.00 | 0.00 | 0.00 | 49 | 1018.7 |
| 20260507191219 | 19 | 80 | 6.4 | 12.9 | 0.00 | 0.00 | 0.00 | 50 | 1018.7 |
| 20260507191120 | 19 | 96 | 6.4 | 12.9 | 0.00 | 0.00 | 0.00 | 50 | 1018.6 |
| 20260507191018 | 19 | 80 | 6.4 | 12.9 | 0.00 | 0.00 | 0.00 | 50 | 1018.6 |
| 20260507190920 | 19 | 81 | 6.4 | 12.9 | 0.00 | 0.00 | 0.00 | 50 | 1018.7 |
| 20260507190835 | 19 | 79 | 6.4 | 12.9 | 0.00 | 0.00 | 0.00 | 49 | 1018.7 |
| 20260507190720 | 19 | 79 | 6.4 | 12.9 | 0.00 | 0.00 | 0.00 | 48 | 1018.7 |
| 20260507190619 | 19 | 74 | 6.4 | 11.3 | 0.00 | 0.00 | 0.00 | 48 | 1018.7 |
| 20260507190518 | 19 | 76 | 6.4 | 11.3 | 0.00 | 0.00 | 0.00 | 47 | 1018.6 |
| 20260507190418 | 19 | 87 | 6.4 | 11.3 | 0.00 | 0.00 | 0.00 | 46 | 1018.6 |
| 20260507190319 | 19 | 78 | 6.4 | 11.3 | 0.00 | 0.00 | 0.00 | 47 | 1018.7 |
| 20260507190218 | 19 | 79 | 6.4 | 11.3 | 0.00 | 0.00 | 0.00 | 47 | 1018.7 |
| 20260507190119 | 19 | 78 | 6.4 | 11.3 | 0.00 | 0.00 | 0.00 | 48 | 1018.7 |
| 20260507190018 | 19 | 74 | 6.4 | 11.3 | 0.00 | 0.00 | 0.00 | 48 | 1018.8 |
| 20260507185920 | 19 | 74 | 6.4 | 11.3 | 0.00 | 0.00 | 0.00 | 49 | 1018.8 |
| 20260507185818 | 19 | 79 | 6.4 | 11.3 | 0.00 | 0.00 | 0.00 | 49 | 1018.8 |
| 20260507185718 | 19 | 80 | 6.4 | 9.7 | 0.00 | 0.00 | 0.00 | 49 | 1018.9 |
| 20260507185618 | 19 | 76 | 4.8 | 8.0 | 0.00 | 0.00 | 0.00 | 49 | 1018.8 |
| 20260507185520 | 19 | 73 | 4.8 | 8.0 | 0.00 | 0.00 | 0.00 | 49 | 1018.9 |
| 20260507185420 | 19 | 76 | 3.2 | 8.0 | 0.00 | 0.00 | 0.00 | 49 | 1018.8 |
| 20260507185316 | 19 | 73 | 3.2 | 8.0 | 0.00 | 0.00 | 0.00 | 49 | 1018.8 |
| 20260507185217 | 19 | 71 | 3.2 | 8.0 | 0.00 | 0.00 | 0.00 | 49 | 1018.9 |
| 20260507185117 | 19 | 77 | 3.2 | 8.0 | 0.00 | 0.00 | 0.00 | 49 | 1018.9 |
| 20260507185017 | 19 | 75 | 3.2 | 8.0 | 0.00 | 0.00 | 0.00 | 49 | 1018.8 |
| 20260507184917 | 19 | 70 | 3.2 | 8.0 | 0.00 | 0.00 | 0.00 | 49 | 1018.8 |
| 20260507184818 | 19 | 71 | 3.2 | 8.0 | 0.00 | 0.00 | 0.00 | 49 | 1018.8 |
| 20260507184717 | 19 | 71 | 3.2 | 8.0 | 0.00 | 0.00 | 0.00 | 49 | 1018.8 |
| 20260507184619 | 19 | 72 | 3.2 | 8.0 | 0.00 | 0.00 | 0.00 | 49 | 1018.8 |
| 20260507184516 | 19 | 72 | 3.2 | 8.0 | 0.00 | 0.00 | 0.00 | 49 | 1018.9 |
| 20260507184417 | 19 | 72 | 3.2 | 8.0 | 0.00 | 0.00 | 0.00 | 48 | 1018.8 |
| 20260507184317 | 19 | 72 | 3.2 | 8.0 | 0.00 | 0.00 | 0.00 | 48 | 1018.8 |
| 20260507184231 | 19 | 73 | 3.2 | 8.0 | 0.00 | 0.00 | 0.00 | 48 | 1018.7 |
| 20260507184116 | 19 | 68 | 3.2 | 6.4 | 0.00 | 0.00 | 0.00 | 48 | 1018.7 |
| 20260507184026 | 19 | 68 | 3.2 | 6.4 | 0.00 | 0.00 | 0.00 | 48 | 1018.7 |
| 20260507183924 | 19 | 68 | 3.2 | 6.4 | 0.00 | 0.00 | 0.00 | 48 | 1018.7 |
| 20260507183816 | 19 | 63 | 3.2 | 8.0 | 0.00 | 0.00 | 0.00 | 49 | 1018.7 |
| 20260507183717 | 19 | 63 | 3.2 | 8.0 | 0.00 | 0.00 | 0.00 | 49 | 1018.8 |
| 20260507183616 | 19 | 72 | 3.2 | 8.0 | 0.00 | 0.00 | 0.00 | 50 | 1018.7 |
| 20260507183518 | 19 | 50 | 4.8 | 11.3 | 0.00 | 0.00 | 0.00 | 50 | 1018.7 |
| 20260507183412 | 19 | 75 | 4.8 | 11.3 | 0.00 | 0.00 | 0.00 | 50 | 1018.7 |
| 20260507183313 | 19 | 76 | 4.8 | 11.3 | 0.00 | 0.00 | 0.00 | 50 | 1018.7 |
| 20260507183212 | 19 | 76 | 4.8 | 11.3 | 0.00 | 0.00 | 0.00 | 50 | 1018.7 |
| 20260507183113 | 19 | 80 | 4.8 | 11.3 | 0.00 | 0.00 | 0.00 | 50 | 1018.8 |
| 20260507183012 | 19 | 76 | 4.8 | 11.3 | 0.00 | 0.00 | 0.00 | 50 | 1018.7 |
| 20260507182915 | 19 | 74 | 3.2 | 11.3 | 0.00 | 0.00 | 0.00 | 50 | 1018.7 |
| 20260507182812 | 19 | 76 | 3.2 | 11.3 | 0.00 | 0.00 | 0.00 | 50 | 1018.7 |
| 20260507182713 | 19 | 81 | 3.2 | 11.3 | 0.00 | 0.00 | 0.00 | 50 | 1018.6 |
| 20260507182614 | 19 | 78 | 1.6 | 11.3 | 0.00 | 0.00 | 0.00 | 50 | 1018.6 |
| 20260507182512 | 20 | 78 | 1.6 | 11.3 | 0.00 | 0.00 | 0.00 | 50 | 1018.7 |
| 20260507182413 | 20 | 82 | 1.6 | 6.4 | 0.00 | 0.00 | 0.00 | 49 | 1018.6 |
| 20260507182312 | 20 | 72 | 1.6 | 8.0 | 0.00 | 0.00 | 0.00 | 50 | 1018.6 |
| 20260507182212 | 20 | 64 | 1.6 | 8.0 | 0.00 | 0.00 | 0.00 | 50 | 1018.6 |
| 20260507182113 | 20 | 64 | 1.6 | 8.0 | 0.00 | 0.00 | 0.00 | 51 | 1018.5 |
| 20260507182012 | 20 | 64 | 1.6 | 8.0 | 0.00 | 0.00 | 0.00 | 51 | 1018.5 |
| 20260507181912 | 20 | 64 | 3.2 | 8.0 | 0.00 | 0.00 | 0.00 | 51 | 1018.6 |
| 20260507181812 | 20 | 64 | 3.2 | 8.0 | 0.00 | 0.00 | 0.00 | 51 | 1018.5 |
| 20260507181713 | 20 | 64 | 3.2 | 8.0 | 0.00 | 0.00 | 0.00 | 51 | 1018.6 |
| 20260507181614 | 20 | 64 | 3.2 | 8.0 | 0.00 | 0.00 | 0.00 | 51 | 1018.6 |
| 20260507181507 | 20 | 64 | 1.6 | 8.0 | 0.00 | 0.00 | 0.00 | 51 | 1018.6 |
| 20260507181408 | 20 | 63 | 1.6 | 8.0 | 0.00 | 0.00 | 0.00 | 51 | 1018.6 |
| 20260507181308 | 20 | 67 | 1.6 | 6.4 | 0.00 | 0.00 | 0.00 | 51 | 1018.6 |
| 20260507181209 | 20 | 69 | 1.6 | 6.4 | 0.00 | 0.00 | 0.00 | 51 | 1018.6 |
| 20260507181109 | 20 | 73 | 0.0 | 4.8 | 0.00 | 0.00 | 0.00 | 50 | 1018.6 |
| 20260507181009 | 20 | 74 | 0.0 | 4.8 | 0.00 | 0.00 | 0.00 | 50 | 1018.6 |
| 20260507180909 | 20 | 73 | 0.0 | 4.8 | 0.00 | 0.00 | 0.00 | 50 | 1018.6 |
| 20260507180810 | 20 | 72 | 0.0 | 3.2 | 0.00 | 0.00 | 0.00 | 50 | 1018.6 |
| 20260507180710 | 20 | 72 | 0.0 | 3.2 | 0.00 | 0.00 | 0.00 | 50 | 1018.7 |
| 20260507180609 | 20 | 72 | 1.6 | 3.2 | 0.00 | 0.00 | 0.00 | 50 | 1018.7 |
| 20260507180509 | 20 | 72 | 1.6 | 3.2 | 0.00 | 0.00 | 0.00 | 50 | 1018.6 |
| 20260507180409 | 20 | 72 | 1.6 | 3.2 | 0.00 | 0.00 | 0.00 | 50 | 1018.7 |
| 20260507180309 | 20 | 72 | 1.6 | 3.2 | 0.00 | 0.00 | 0.00 | 50 | 1018.7 |
| 20260507180208 | 20 | 72 | 1.6 | 3.2 | 0.00 | 0.00 | 0.00 | 50 | 1018.7 |
| 20260507180107 | 20 | 72 | 1.6 | 3.2 | 0.00 | 0.00 | 0.00 | 50 | 1018.7 |
| 20260507180022 | 20 | 72 | 1.6 | 3.2 | 0.00 | 0.00 | 0.00 | 50 | 1018.7 |
| 20260507175909 | 20 | 72 | 1.6 | 3.2 | 0.00 | 0.00 | 0.00 | 50 | 1018.7 |
| 20260507175808 | 20 | 72 | 1.6 | 3.2 | 0.00 | 0.00 | 0.00 | 50 | 1018.7 |
| 20260507175710 | 20 | 72 | 1.6 | 3.2 | 0.00 | 0.00 | 0.00 | 50 | 1018.7 |
| 20260507175604 | 20 | 72 | 0.0 | 3.2 | 0.00 | 0.00 | 0.00 | 50 | 1018.6 |
| 20260507175504 | 20 | 72 | 0.0 | 3.2 | 0.00 | 0.00 | 0.00 | 50 | 1018.6 |
| 20260507175405 | 20 | 72 | 0.0 | 3.2 | 0.00 | 0.00 | 0.00 | 50 | 1018.7 |
| 20260507175307 | 20 | 72 | 0.0 | 3.2 | 0.00 | 0.00 | 0.00 | 49 | 1018.6 |
| 20260507175204 | 20 | 72 | 1.6 | 3.2 | 0.00 | 0.00 | 0.00 | 49 | 1018.6 |
| 20260507175106 | 20 | 72 | 1.6 | 3.2 | 0.00 | 0.00 | 0.00 | 49 | 1018.6 |
| 20260507175005 | 20 | 72 | 1.6 | 4.8 | 0.00 | 0.00 | 0.00 | 49 | 1018.5 |
| 20260507174910 | 20 | 72 | 1.6 | 4.8 | 0.00 | 0.00 | 0.00 | 49 | 1018.5 |
| 20260507174804 | 20 | 72 | 1.6 | 6.4 | 0.00 | 0.00 | 0.00 | 49 | 1018.6 |
| 20260507174704 | 20 | 72 | 3.2 | 6.4 | 0.00 | 0.00 | 0.00 | 49 | 1018.6 |
| 20260507174604 | 20 | 72 | 3.2 | 6.4 | 0.00 | 0.00 | 0.00 | 49 | 1018.6 |
| 20260507174504 | 20 | 72 | 3.2 | 6.4 | 0.00 | 0.00 | 0.00 | 49 | 1018.6 |
| 20260507174408 | 20 | 72 | 3.2 | 6.4 | 0.00 | 0.00 | 0.00 | 49 | 1018.6 |
| 20260507174306 | 20 | 72 | 3.2 | 6.4 | 0.00 | 0.00 | 0.00 | 49 | 1018.6 |
| 20260507174205 | 20 | 72 | 3.2 | 6.4 | 0.00 | 0.00 | 0.00 | 49 | 1018.5 |
| 20260507174102 | 20 | 72 | 3.2 | 6.4 | 0.00 | 0.00 | 0.00 | 50 | 1018.5 |
| 20260507174004 | 20 | 73 | 3.2 | 6.4 | 0.00 | 0.00 | 0.00 | 49 | 1018.5 |
| 20260507173907 | 20 | 72 | 3.2 | 6.4 | 0.00 | 0.00 | 0.00 | 49 | 1018.5 |
| 20260507173804 | 20 | 64 | 1.6 | 4.8 | 0.00 | 0.00 | 0.00 | 49 | 1018.5 |
| 20260507173702 | 20 | 62 | 1.6 | 4.8 | 0.00 | 0.00 | 0.00 | 49 | 1018.5 |
| 20260507173604 | 20 | 60 | 1.6 | 4.8 | 0.00 | 0.00 | 0.00 | 49 | 1018.4 |
| 20260507173505 | 20 | 60 | 1.6 | 4.8 | 0.00 | 0.00 | 0.00 | 49 | 1018.5 |
| 20260507173404 | 20 | 58 | 1.6 | 4.8 | 0.00 | 0.00 | 0.00 | 49 | 1018.6 |
| 20260507173313 | 20 | 54 | 0.0 | 4.8 | 0.00 | 0.00 | 0.00 | 49 | 1018.5 |
| 20260507173204 | 20 | 52 | 0.0 | 4.8 | 0.00 | 0.00 | 0.00 | 48 | 1018.5 |
| 20260507173103 | 20 | 51 | 0.0 | 4.8 | 0.00 | 0.00 | 0.00 | 48 | 1018.4 |
| 20260507173006 | 20 | 51 | 1.6 | 4.8 | 0.00 | 0.00 | 0.00 | 48 | 1018.5 |
| 20260507172905 | 21 | 52 | 1.6 | 4.8 | 0.00 | 0.00 | 0.00 | 48 | 1018.5 |
| 20260507172804 | 21 | 51 | 1.6 | 3.2 | 0.00 | 0.00 | 0.00 | 48 | 1018.5 |
| 20260507172705 | 21 | 51 | 1.6 | 3.2 | 0.00 | 0.00 | 0.00 | 48 | 1018.5 |
| 20260507172617 | 21 | 51 | 1.6 | 3.2 | 0.00 | 0.00 | 0.00 | 48 | 1018.5 |
| 20260507172529 | 21 | 51 | 1.6 | 3.2 | 0.00 | 0.00 | 0.00 | 48 | 1018.6 |
| 20260507172403 | 21 | 51 | 1.6 | 3.2 | 0.00 | 0.00 | 0.00 | 48 | 1018.6 |
| 20260507172306 | 21 | 51 | 1.6 | 3.2 | 0.00 | 0.00 | 0.00 | 48 | 1018.7 |
| 20260507172202 | 21 | 51 | 1.6 | 3.2 | 0.00 | 0.00 | 0.00 | 48 | 1018.6 |
| 20260507172102 | 21 | 51 | 1.6 | 3.2 | 0.00 | 0.00 | 0.00 | 47 | 1018.6 |
| 20260507172003 | 21 | 51 | 1.6 | 3.2 | 0.00 | 0.00 | 0.00 | 47 | 1018.7 |
| 20260507171905 | 21 | 348 | 1.6 | 3.2 | 0.00 | 0.00 | 0.00 | 47 | 1018.7 |
| 20260507171803 | 21 | 348 | 1.6 | 3.2 | 0.00 | 0.00 | 0.00 | 48 | 1018.7 |
| 20260507171714 | 21 | 348 | 1.6 | 3.2 | 0.00 | 0.00 | 0.00 | 48 | 1018.7 |
| 20260507171610 | 21 | 338 | 1.6 | 3.2 | 0.00 | 0.00 | 0.00 | 48 | 1018.7 |
| 20260507171504 | 21 | 338 | 0.0 | 3.2 | 0.00 | 0.00 | 0.00 | 48 | 1018.7 |
| 20260507171402 | 21 | 338 | 0.0 | 3.2 | 0.00 | 0.00 | 0.00 | 48 | 1018.7 |
| 20260507171302 | 21 | 338 | 0.0 | 3.2 | 0.00 | 0.00 | 0.00 | 48 | 1018.8 |
| 20260507171203 | 21 | 289 | 0.0 | 1.6 | 0.00 | 0.00 | 0.00 | 48 | 1018.8 |
| 20260507171106 | 21 | 288 | 0.0 | 1.6 | 0.00 | 0.00 | 0.00 | 48 | 1018.7 |
| 20260507171005 | 21 | 288 | 0.0 | 1.6 | 0.00 | 0.00 | 0.00 | 48 | 1018.7 |
| 20260507170914 | 21 | 288 | 0.0 | 1.6 | 0.00 | 0.00 | 0.00 | 48 | 1018.6 |
| 20260507170802 | 21 | 288 | 0.0 | 1.6 | 0.00 | 0.00 | 0.00 | 48 | 1018.7 |
| 20260507170707 | 21 | 288 | 0.0 | 1.6 | 0.00 | 0.00 | 0.00 | 48 | 1018.7 |
| 20260507170603 | 21 | 288 | 0.0 | 1.6 | 0.00 | 0.00 | 0.00 | 48 | 1018.6 |
| 20260507170518 | 21 | 288 | 0.0 | 1.6 | 0.00 | 0.00 | 0.00 | 48 | 1018.6 |
| 20260507170402 | 21 | 288 | 0.0 | 1.6 | 0.00 | 0.00 | 0.00 | 49 | 1018.5 |
| 20260507170305 | 21 | 287 | 0.0 | 0.0 | 0.00 | 0.00 | 0.00 | 49 | 1018.6 |
| 20260507170202 | 21 | 287 | 0.0 | 0.0 | 0.00 | 0.00 | 0.00 | 49 | 1018.5 |
| 20260507170104 | 21 | 287 | 0.0 | 0.0 | 0.00 | 0.00 | 0.00 | 48 | 1018.5 |
| 20260507170003 | 21 | 287 | 0.0 | 0.0 | 0.00 | 0.00 | 0.00 | 48 | 1018.5 |
| 20260507165903 | 21 | 287 | 0.0 | 0.0 | 0.00 | 0.00 | 0.00 | 48 | 1018.5 |
| 20260507165803 | 21 | 287 | 0.0 | 0.0 | 0.00 | 0.00 | 0.00 | 48 | 1018.5 |
| 20260507165703 | 21 | 287 | 0.0 | 0.0 | 0.00 | 0.00 | 0.00 | 49 | 1018.5 |
| 20260507165603 | 21 | 287 | 0.0 | 0.0 | 0.00 | 0.00 | 0.00 | 49 | 1018.3 |
| 20260507165507 | 21 | 287 | 0.0 | 1.6 | 0.00 | 0.00 | 0.00 | 49 | 1018.3 |
| 20260507165403 | 21 | 287 | 0.0 | 1.6 | 0.00 | 0.00 | 0.00 | 49 | 1018.4 |
| 20260507165306 | 21 | 287 | 0.0 | 1.6 | 0.00 | 0.00 | 0.00 | 49 | 1018.4 |
| 20260507165204 | 21 | 287 | 0.0 | 1.6 | 0.00 | 0.00 | 0.00 | 49 | 1018.3 |
| 20260507165104 | 21 | 287 | 0.0 | 1.6 | 0.00 | 0.00 | 0.00 | 49 | 1018.4 |
| 20260507165004 | 21 | 287 | 0.0 | 1.6 | 0.00 | 0.00 | 0.00 | 48 | 1018.4 |
| 20260507164903 | 21 | 287 | 0.0 | 3.2 | 0.00 | 0.00 | 0.00 | 48 | 1018.4 |
| 20260507164804 | 21 | 287 | 0.0 | 3.2 | 0.00 | 0.00 | 0.00 | 49 | 1018.5 |
| 20260507164706 | 21 | 287 | 0.0 | 3.2 | 0.00 | 0.00 | 0.00 | 48 | 1018.5 |
| 20260507164602 | 21 | 287 | 0.0 | 3.2 | 0.00 | 0.00 | 0.00 | 48 | 1018.5 |
| 20260507164504 | 21 | 287 | 0.0 | 3.2 | 0.00 | 0.00 | 0.00 | 48 | 1018.5 |
| 20260507164402 | 21 | 287 | 0.0 | 3.2 | 0.00 | 0.00 | 0.00 | 49 | 1018.4 |
| 20260507164303 | 21 | 287 | 1.6 | 3.2 | 0.00 | 0.00 | 0.00 | 49 | 1018.5 |
| 20260507164206 | 21 | 287 | 1.6 | 3.2 | 0.00 | 0.00 | 0.00 | 49 | 1018.5 |
| 20260507164104 | 21 | 287 | 1.6 | 3.2 | 0.00 | 0.00 | 0.00 | 49 | 1018.5 |
| 20260507164005 | 21 | 287 | 1.6 | 3.2 | 0.00 | 0.00 | 0.00 | 49 | 1018.5 |
| 20260507163904 | 21 | 286 | 1.6 | 3.2 | 0.00 | 0.00 | 0.00 | 48 | 1018.5 |
| 20260507163804 | 21 | 286 | 1.6 | 3.2 | 0.00 | 0.00 | 0.00 | 48 | 1018.6 |
| 20260507163702 | 21 | 286 | 1.6 | 3.2 | 0.00 | 0.00 | 0.00 | 48 | 1018.6 |
| 20260507163603 | 21 | 286 | 1.6 | 3.2 | 0.00 | 0.00 | 0.00 | 48 | 1018.5 |
| 20260507163504 | 21 | 286 | 1.6 | 3.2 | 0.00 | 0.00 | 0.00 | 48 | 1018.4 |
| 20260507163404 | 21 | 286 | 1.6 | 3.2 | 0.00 | 0.00 | 0.00 | 49 | 1018.5 |
| 20260507163304 | 21 | 286 | 1.6 | 3.2 | 0.00 | 0.00 | 0.00 | 49 | 1018.4 |
| 20260507163204 | 21 | 286 | 1.6 | 3.2 | 0.00 | 0.00 | 0.00 | 49 | 1018.4 |
| 20260507163104 | 21 | 286 | 1.6 | 3.2 | 0.00 | 0.00 | 0.00 | 49 | 1018.3 |
| 20260507163007 | 21 | 286 | 1.6 | 3.2 | 0.00 | 0.00 | 0.00 | 49 | 1018.3 |
| 20260507162904 | 21 | 286 | 1.6 | 3.2 | 0.00 | 0.00 | 0.00 | 49 | 1018.4 |
| 20260507162804 | 21 | 286 | 1.6 | 3.2 | 0.00 | 0.00 | 0.00 | 49 | 1018.5 |
| 20260507162704 | 21 | 286 | 1.6 | 4.8 | 0.00 | 0.00 | 0.00 | 49 | 1018.4 |
| 20260507162611 | 21 | 286 | 1.6 | 4.8 | 0.00 | 0.00 | 0.00 | 49 | 1018.4 |
| 20260507162505 | 21 | 286 | 1.6 | 4.8 | 0.00 | 0.00 | 0.00 | 49 | 1018.4 |
| 20260507162404 | 21 | 286 | 1.6 | 4.8 | 0.00 | 0.00 | 0.00 | 50 | 1018.3 |
| 20260507162307 | 21 | 286 | 1.6 | 4.8 | 0.00 | 0.00 | 0.00 | 50 | 1018.3 |
| 20260507162203 | 21 | 286 | 1.6 | 4.8 | 0.00 | 0.00 | 0.00 | 50 | 1018.4 |
| 20260507162103 | 21 | 286 | 1.6 | 4.8 | 0.00 | 0.00 | 0.00 | 50 | 1018.3 |
| 20260507162006 | 21 | 286 | 1.6 | 4.8 | 0.00 | 0.00 | 0.00 | 50 | 1018.4 |
| 20260507161904 | 21 | 286 | 1.6 | 4.8 | 0.00 | 0.00 | 0.00 | 50 | 1018.4 |
| 20260507161804 | 21 | 286 | 1.6 | 4.8 | 0.00 | 0.00 | 0.00 | 50 | 1018.3 |
| 20260507161703 | 21 | 286 | 1.6 | 4.8 | 0.00 | 0.00 | 0.00 | 50 | 1018.3 |
| 20260507161604 | 21 | 286 | 1.6 | 4.8 | 0.00 | 0.00 | 0.00 | 50 | 1018.3 |
| 20260507161507 | 22 | 286 | 1.6 | 4.8 | 0.00 | 0.00 | 0.00 | 50 | 1018.2 |
| 20260507161404 | 22 | 286 | 1.6 | 4.8 | 0.00 | 0.00 | 0.00 | 50 | 1018.3 |
| 20260507161302 | 22 | 286 | 1.6 | 4.8 | 0.00 | 0.00 | 0.00 | 50 | 1018.3 |
| 20260507161203 | 22 | 286 | 1.6 | 4.8 | 0.00 | 0.00 | 0.00 | 50 | 1018.3 |
| 20260507161106 | 22 | 286 | 1.6 | 4.8 | 0.00 | 0.00 | 0.00 | 50 | 1018.3 |
| 20260507161001 | 22 | 286 | 1.6 | 4.8 | 0.00 | 0.00 | 0.00 | 50 | 1018.3 |
| 20260507160902 | 22 | 286 | 1.6 | 4.8 | 0.00 | 0.00 | 0.00 | 50 | 1018.3 |
| 20260507160801 | 22 | 286 | 1.6 | 4.8 | 0.00 | 0.00 | 0.00 | 50 | 1018.4 |
| 20260507160701 | 22 | 286 | 1.6 | 6.4 | 0.00 | 0.00 | 0.00 | 49 | 1018.5 |
| 20260507160558 | 22 | 286 | 1.6 | 6.4 | 0.00 | 0.00 | 0.00 | 49 | 1018.5 |
| 20260507160458 | 22 | 286 | 1.6 | 6.4 | 0.00 | 0.00 | 0.00 | 49 | 1018.4 |
| 20260507160356 | 22 | 286 | 3.2 | 6.4 | 0.00 | 0.00 | 0.00 | 49 | 1018.5 |
| 20260507160255 | 22 | 286 | 3.2 | 6.4 | 0.00 | 0.00 | 0.00 | 49 | 1018.5 |
| 20260507160153 | 22 | 286 | 1.6 | 6.4 | 0.00 | 0.00 | 0.00 | 49 | 1018.4 |
| 20260507160052 | 22 | 286 | 3.2 | 6.4 | 0.00 | 0.00 | 0.00 | 49 | 1018.5 |
| 20260507155951 | 22 | 286 | 3.2 | 6.4 | 0.00 | 0.00 | 0.00 | 49 | 1018.5 |
| 20260507155851 | 22 | 285 | 1.6 | 6.4 | 0.00 | 0.00 | 0.00 | 48 | 1018.4 |
| 20260507155750 | 22 | 284 | 1.6 | 6.4 | 0.00 | 0.00 | 0.00 | 48 | 1018.5 |
| 20260507155653 | 22 | 262 | 1.6 | 4.8 | 0.00 | 0.00 | 0.00 | 48 | 1018.5 |
| 20260507155551 | 22 | 262 | 1.6 | 4.8 | 0.00 | 0.00 | 0.00 | 48 | 1018.5 |
| 20260507155502 | 22 | 259 | 1.6 | 4.8 | 0.00 | 0.00 | 0.00 | 48 | 1018.4 |
| 20260507155348 | 22 | 257 | 1.6 | 4.8 | 0.00 | 0.00 | 0.00 | 48 | 1018.4 |
| 20260507155244 | 22 | 252 | 1.6 | 4.8 | 0.00 | 0.00 | 0.00 | 48 | 1018.4 |
| 20260507155146 | 22 | 251 | 1.6 | 4.8 | 0.00 | 0.00 | 0.00 | 48 | 1018.3 |
| 20260507155044 | 22 | 251 | 1.6 | 4.8 | 0.00 | 0.00 | 0.00 | 48 | 1018.2 |
| 20260507154942 | 22 | 251 | 1.6 | 4.8 | 0.00 | 0.00 | 0.00 | 48 | 1018.2 |
| 20260507154843 | 22 | 251 | 1.6 | 4.8 | 0.00 | 0.00 | 0.00 | 48 | 1018.2 |
| 20260507154742 | 22 | 251 | 1.6 | 4.8 | 0.00 | 0.00 | 0.00 | 48 | 1018.2 |
| 20260507154640 | 22 | 251 | 1.6 | 4.8 | 0.00 | 0.00 | 0.00 | 49 | 1018.1 |
| 20260507154541 | 22 | 250 | 1.6 | 4.8 | 0.00 | 0.00 | 0.00 | 49 | 1018.1 |
| 20260507154442 | 22 | 250 | 1.6 | 4.8 | 0.00 | 0.00 | 0.00 | 48 | 1018.1 |
| 20260507154339 | 22 | 250 | 1.6 | 4.8 | 0.00 | 0.00 | 0.00 | 48 | 1018.1 |
| 20260507154238 | 22 | 250 | 1.6 | 4.8 | 0.00 | 0.00 | 0.00 | 48 | 1018.1 |
| 20260507154138 | 22 | 250 | 1.6 | 4.8 | 0.00 | 0.00 | 0.00 | 48 | 1018.2 |
| 20260507154032 | 22 | 250 | 1.6 | 4.8 | 0.00 | 0.00 | 0.00 | 48 | 1018.2 |
| 20260507154016 | 22 | 250 | 1.6 | 4.8 | 0.00 | 0.00 | 0.00 | 48 | 1018.2 |
| 20260507153933 | 22 | 250 | 1.6 | 4.8 | 0.00 | 0.00 | 0.00 | 48 | 1018.2 |
| 20260507153832 | 22 | 250 | 1.6 | 4.8 | 0.00 | 0.00 | 0.00 | 48 | 1018.3 |
| 20260507153730 | 22 | 250 | 1.6 | 4.8 | 0.00 | 0.00 | 0.00 | 49 | 1018.3 |
| 20260507153630 | 22 | 249 | 1.6 | 4.8 | 0.00 | 0.00 | 0.00 | 48 | 1018.3 |
| 20260507153530 | 22 | 249 | 1.6 | 4.8 | 0.00 | 0.00 | 0.00 | 48 | 1018.3 |
| 20260507153439 | 22 | 248 | 3.2 | 9.7 | 0.00 | 0.00 | 0.00 | 47 | 1018.3 |
| 20260507153431 | 22 | 249 | 3.2 | 4.8 | 0.00 | 0.00 | 0.00 | 48 | 1018.2 |
| 20260507153408 | 22 | 248 | 3.2 | 9.7 | 0.00 | 0.00 | 0.00 | 48 | 1018.3 |
| 20260507153331 | 22 | 249 | 3.2 | 4.8 | 0.00 | 0.00 | 0.00 | 48 | 1018.3 |
| 20260507153231 | 22 | 248 | 3.2 | 9.7 | 0.00 | 0.00 | 0.00 | 47 | 1018.3 |
| 20260507153131 | 22 | 248 | 3.2 | 9.7 | 0.00 | 0.00 | 0.00 | 48 | 1018.3 |
| 20260507153030 | 22 | 249 | 3.2 | 9.7 | 0.00 | 0.00 | 0.00 | 48 | 1018.3 |
| 20260507152931 | 22 | 235 | 3.2 | 9.7 | 0.00 | 0.00 | 0.00 | 47 | 1018.3 |
| 20260507152850 | 22 | 224 | 4.8 | 9.7 | 0.00 | 0.00 | 0.00 | 46 | 1018.4 |
| 20260507152835 | 22 | 234 | 3.2 | 9.7 | 0.00 | 0.00 | 0.00 | 47 | 1018.3 |
| 20260507152631 | 22 | 229 | 4.8 | 9.7 | 0.00 | 0.00 | 0.00 | 47 | 1018.3 |
| 20260507152529 | 22 | 229 | 4.8 | 9.7 | 0.00 | 0.00 | 0.00 | 47 | 1018.3 |
| 20260507152430 | 22 | 228 | 4.8 | 9.7 | 0.00 | 0.00 | 0.00 | 47 | 1018.4 |
| 20260507152329 | 22 | 224 | 4.8 | 9.7 | 0.00 | 0.00 | 0.00 | 46 | 1018.4 |
| 20260507152324 | 22 | 266 | 4.8 | 8.0 | 0.00 | 0.00 | 0.00 | 43 | 1018.5 |
| 20260507152231 | 22 | 212 | 3.2 | 8.0 | 0.00 | 0.00 | 0.00 | 46 | 1018.5 |
| 20260507152130 | 22 | 262 | 3.2 | 8.0 | 0.00 | 0.00 | 0.00 | 45 | 1018.5 |
| 20260507152030 | 22 | 263 | 4.8 | 8.0 | 0.00 | 0.00 | 0.00 | 45 | 1018.4 |
| 20260507151930 | 22 | 264 | 4.8 | 8.0 | 0.00 | 0.00 | 0.00 | 44 | 1018.5 |
| 20260507151832 | 22 | 266 | 4.8 | 8.0 | 0.00 | 0.00 | 0.00 | 43 | 1018.5 |
| 20260507151735 | 23 | 278 | 4.8 | 8.0 | 0.00 | 0.00 | 0.00 | 43 | 1018.4 |
| 20260507151627 | 23 | 237 | 4.8 | 8.0 | 0.00 | 0.00 | 0.00 | 43 | 1018.5 |
| 20260507151526 | 23 | 229 | 4.8 | 8.0 | 0.00 | 0.00 | 0.00 | 43 | 1018.5 |
| 20260507151426 | 23 | 205 | 4.8 | 8.0 | 0.00 | 0.00 | 0.00 | 43 | 1018.4 |
| 20260507151326 | 23 | 204 | 4.8 | 8.0 | 0.00 | 0.00 | 0.00 | 43 | 1018.3 |
| 20260507151230 | 23 | 204 | 4.8 | 8.0 | 0.00 | 0.00 | 0.00 | 44 | 1018.3 |
| 20260507151119 | 23 | 222 | 4.8 | 8.0 | 0.00 | 0.00 | 0.00 | 44 | 1018.4 |
| 20260507151020 | 23 | 222 | 4.8 | 8.0 | 0.00 | 0.00 | 0.00 | 45 | 1018.4 |
| 20260507150922 | 23 | 222 | 3.2 | 8.0 | 0.00 | 0.00 | 0.00 | 45 | 1018.4 |
| 20260507150818 | 23 | 234 | 3.2 | 8.0 | 0.00 | 0.00 | 0.00 | 45 | 1018.5 |
| 20260507150725 | 23 | 274 | 4.8 | 8.0 | 0.00 | 0.00 | 0.00 | 45 | 1018.5 |
| 20260507150613 | 23 | 268 | 4.8 | 8.0 | 0.00 | 0.00 | 0.00 | 45 | 1018.5 |
| 20260507150514 | 23 | 214 | 4.8 | 8.0 | 0.00 | 0.00 | 0.00 | 45 | 1018.4 |
| 20260507150412 | 23 | 211 | 4.8 | 8.0 | 0.00 | 0.00 | 0.00 | 45 | 1018.5 |
| 20260507150314 | 23 | 211 | 4.8 | 11.3 | 0.00 | 0.00 | 0.00 | 44 | 1018.6 |
| 20260507150214 | 23 | 211 | 4.8 | 11.3 | 0.00 | 0.00 | 0.00 | 43 | 1018.5 |
| 20260507150109 | 23 | 214 | 4.8 | 14.5 | 0.00 | 0.00 | 0.00 | 43 | 1018.5 |
| 20260507150007 | 23 | 247 | 6.4 | 14.5 | 0.00 | 0.00 | 0.00 | 43 | 1018.5 |
| 20260507145909 | 23 | 245 | 6.4 | 14.5 | 0.00 | 0.00 | 0.00 | 42 | 1018.5 |
| 20260507145808 | 23 | 253 | 6.4 | 14.5 | 0.00 | 0.00 | 0.00 | 41 | 1018.5 |
| 20260507145707 | 23 | 224 | 6.4 | 14.5 | 0.00 | 0.00 | 0.00 | 40 | 1018.4 |
| 20260507145602 | 23 | 220 | 6.4 | 14.5 | 0.00 | 0.00 | 0.00 | 40 | 1018.5 |
| 20260507145504 | 23 | 237 | 6.4 | 14.5 | 0.00 | 0.00 | 0.00 | 39 | 1018.5 |
| 20260507145306 | 23 | 237 | 6.4 | 14.5 | 0.00 | 0.00 | 0.00 | 38 | 1018.5 |
| 20260507145203 | 23 | 223 | 6.4 | 14.5 | 0.00 | 0.00 | 0.00 | 40 | 1018.5 |
| 20260507145103 | 23 | 227 | 6.4 | 12.9 | 0.00 | 0.00 | 0.00 | 39 | 1018.5 |
| 20260507145007 | 23 | 188 | 6.4 | 12.9 | 0.00 | 0.00 | 0.00 | 39 | 1018.5 |
| 20260507144904 | 23 | 268 | 6.4 | 12.9 | 0.00 | 0.00 | 0.00 | 41 | 1018.4 |
| 20260507144804 | 23 | 232 | 6.4 | 12.9 | 0.00 | 0.00 | 0.00 | 42 | 1018.4 |
| 20260507144703 | 23 | 230 | 6.4 | 12.9 | 0.00 | 0.00 | 0.00 | 43 | 1018.4 |
| 20260507144605 | 23 | 268 | 6.4 | 12.9 | 0.00 | 0.00 | 0.00 | 43 | 1018.3 |
| 20260507144504 | 23 | 237 | 6.4 | 12.9 | 0.00 | 0.00 | 0.00 | 42 | 1018.3 |
| 20260507144404 | 23 | 255 | 6.4 | 12.9 | 0.00 | 0.00 | 0.00 | 41 | 1018.3 |
| 20260507144303 | 24 | 207 | 8.0 | 12.9 | 0.00 | 0.00 | 0.00 | 42 | 1018.3 |
| 20260507144203 | 24 | 257 | 8.0 | 12.9 | 0.00 | 0.00 | 0.00 | 41 | 1018.3 |
| 20260507144108 | 23 | 276 | 8.0 | 12.9 | 0.00 | 0.00 | 0.00 | 41 | 1018.3 |
| 20260507144004 | 23 | 280 | 8.0 | 12.9 | 0.00 | 0.00 | 0.00 | 41 | 1018.3 |
| 20260507143902 | 24 | 222 | 8.0 | 12.9 | 0.00 | 0.00 | 0.00 | 41 | 1018.4 |
| 20260507143803 | 24 | 235 | 8.0 | 12.9 | 0.00 | 0.00 | 0.00 | 41 | 1018.4 |
| 20260507143703 | 24 | 303 | 8.0 | 12.9 | 0.00 | 0.00 | 0.00 | 41 | 1018.3 |
| 20260507143605 | 24 | 251 | 8.0 | 12.9 | 0.00 | 0.00 | 0.00 | 40 | 1018.3 |
| 20260507143506 | 24 | 222 | 8.0 | 12.9 | 0.00 | 0.00 | 0.00 | 41 | 1018.3 |
| 20260507143403 | 24 | 223 | 8.0 | 12.9 | 0.00 | 0.00 | 0.00 | 41 | 1018.2 |
| 20260507143304 | 24 | 236 | 6.4 | 12.9 | 0.00 | 0.00 | 0.00 | 43 | 1018.2 |
| 20260507143204 | 24 | 205 | 8.0 | 12.9 | 0.00 | 0.00 | 0.00 | 41 | 1018.2 |
| 20260507143102 | 24 | 197 | 8.0 | 14.5 | 0.00 | 0.00 | 0.00 | 42 | 1018.1 |
| 20260507143005 | 24 | 218 | 8.0 | 14.5 | 0.00 | 0.00 | 0.00 | 41 | 1018.1 |
| 20260507142904 | 23 | 193 | 8.0 | 14.5 | 0.00 | 0.00 | 0.00 | 41 | 1018.1 |
| 20260507142803 | 24 | 266 | 8.0 | 14.5 | 0.00 | 0.00 | 0.00 | 41 | 1018.1 |
| 20260507142707 | 24 | 259 | 8.0 | 14.5 | 0.00 | 0.00 | 0.00 | 40 | 1018.1 |
| 20260507142603 | 24 | 220 | 8.0 | 14.5 | 0.00 | 0.00 | 0.00 | 40 | 1018.1 |
| 20260507142505 | 24 | 209 | 6.4 | 14.5 | 0.00 | 0.00 | 0.00 | 40 | 1018.2 |
| 20260507142404 | 24 | 215 | 6.4 | 14.5 | 0.00 | 0.00 | 0.00 | 41 | 1018.1 |
| 20260507142306 | 24 | 234 | 8.0 | 14.5 | 0.00 | 0.00 | 0.00 | 42 | 1018.1 |
| 20260507142207 | 24 | 232 | 6.4 | 14.5 | 0.00 | 0.00 | 0.00 | 42 | 1018.1 |
| 20260507142103 | 24 | 212 | 6.4 | 14.5 | 0.00 | 0.00 | 0.00 | 43 | 1018.1 |
| 20260507142004 | 24 | 219 | 4.8 | 14.5 | 0.00 | 0.00 | 0.00 | 43 | 1018.0 |
| 20260507141902 | 24 | 230 | 4.8 | 11.3 | 0.00 | 0.00 | 0.00 | 43 | 1018.0 |
| 20260507141802 | 24 | 216 | 4.8 | 11.3 | 0.00 | 0.00 | 0.00 | 42 | 1018.0 |
| 20260507141706 | 24 | 217 | 4.8 | 11.3 | 0.00 | 0.00 | 0.00 | 42 | 1018.1 |
| 20260507141605 | 24 | 249 | 4.8 | 11.3 | 0.00 | 0.00 | 0.00 | 42 | 1018.1 |
| 20260507141504 | 24 | 224 | 6.4 | 11.3 | 0.00 | 0.00 | 0.00 | 40 | 1018.1 |
| 20260507141415 | 24 | 203 | 6.4 | 11.3 | 0.00 | 0.00 | 0.00 | 40 | 1018.1 |
| 20260507141303 | 23 | 212 | 4.8 | 11.3 | 0.00 | 0.00 | 0.00 | 44 | 1018.0 |
| 20260507141207 | 23 | 268 | 4.8 | 11.3 | 0.00 | 0.00 | 0.00 | 44 | 1018.1 |
| 20260507141103 | 23 | 255 | 4.8 | 11.3 | 0.00 | 0.00 | 0.00 | 44 | 1018.2 |
| 20260507141004 | 23 | 254 | 6.4 | 11.3 | 0.00 | 0.00 | 0.00 | 44 | 1018.2 |
| 20260507140903 | 23 | 283 | 6.4 | 11.3 | 0.00 | 0.00 | 0.00 | 45 | 1018.2 |
| 20260507140803 | 23 | 228 | 6.4 | 12.9 | 0.00 | 0.00 | 0.00 | 45 | 1018.2 |
| 20260507140705 | 24 | 223 | 6.4 | 12.9 | 0.00 | 0.00 | 0.00 | 46 | 1018.3 |
| 20260507140605 | 24 | 215 | 6.4 | 12.9 | 0.00 | 0.00 | 0.00 | 45 | 1018.3 |
| 20260507140500 | 23 | 309 | 6.4 | 12.9 | 0.00 | 0.00 | 0.00 | 44 | 1018.3 |
| 20260507140400 | 23 | 226 | 6.4 | 12.9 | 0.00 | 0.00 | 0.00 | 45 | 1018.3 |
| 20260507140301 | 23 | 247 | 8.0 | 12.9 | 0.00 | 0.00 | 0.00 | 43 | 1018.3 |
| 20260507140201 | 23 | 193 | 8.0 | 12.9 | 0.00 | 0.00 | 0.00 | 42 | 1018.4 |
| 20260507140100 | 23 | 195 | 8.0 | 12.9 | 0.00 | 0.00 | 0.00 | 41 | 1018.4 |
| 20260507135957 | 23 | 210 | 8.0 | 14.5 | 0.00 | 0.00 | 0.00 | 43 | 1018.4 |
| 20260507135856 | 23 | 263 | 8.0 | 14.5 | 0.00 | 0.00 | 0.00 | 45 | 1018.5 |
| 20260507135755 | 23 | 237 | 8.0 | 14.5 | 0.00 | 0.00 | 0.00 | 45 | 1018.5 |
| 20260507135656 | 23 | 290 | 8.0 | 14.5 | 0.00 | 0.00 | 0.00 | 44 | 1018.4 |
| 20260507135554 | 23 | 259 | 8.0 | 14.5 | 0.00 | 0.00 | 0.00 | 43 | 1018.4 |
| 20260507135451 | 24 | 259 | 8.0 | 14.5 | 0.00 | 0.00 | 0.00 | 42 | 1018.4 |
| 20260507135349 | 24 | 221 | 8.0 | 14.5 | 0.00 | 0.00 | 0.00 | 42 | 1018.4 |
| 20260507135249 | 24 | 219 | 8.0 | 14.5 | 0.00 | 0.00 | 0.00 | 44 | 1018.5 |
| 20260507135149 | 23 | 218 | 8.0 | 14.5 | 0.00 | 0.00 | 0.00 | 42 | 1018.4 |
| 20260507135049 | 24 | 203 | 8.0 | 14.5 | 0.00 | 0.00 | 0.00 | 41 | 1018.4 |
| 20260507134943 | 23 | 228 | 9.7 | 14.5 | 0.00 | 0.00 | 0.00 | 41 | 1018.3 |
| 20260507134843 | 23 | 217 | 9.7 | 14.5 | 0.00 | 0.00 | 0.00 | 42 | 1018.3 |
| 20260507134742 | 23 | 211 | 9.7 | 14.5 | 0.00 | 0.00 | 0.00 | 42 | 1018.3 |
| 20260507134643 | 23 | 199 | 9.7 | 14.5 | 0.00 | 0.00 | 0.00 | 40 | 1018.3 |
| 20260507134543 | 23 | 191 | 9.7 | 14.5 | 0.00 | 0.00 | 0.00 | 38 | 1018.4 |
| 20260507134437 | 23 | 243 | 9.7 | 14.5 | 0.00 | 0.00 | 0.00 | 37 | 1018.4 |
| 20260507134337 | 24 | 222 | 9.7 | 14.5 | 0.00 | 0.00 | 0.00 | 36 | 1018.3 |
| 20260507134237 | 24 | 234 | 9.7 | 14.5 | 0.00 | 0.00 | 0.00 | 35 | 1018.5 |
| 20260507134137 | 24 | 234 | 9.7 | 14.5 | 0.00 | 0.00 | 0.00 | 35 | 1018.5 |
| 20260507134037 | 24 | 232 | 8.0 | 14.5 | 0.00 | 0.00 | 0.00 | 34 | 1018.4 |
| 20260507133934 | 24 | 224 | 8.0 | 14.5 | 0.00 | 0.00 | 0.00 | 36 | 1018.4 |
| 20260507133834 | 24 | 224 | 8.0 | 14.5 | 0.00 | 0.00 | 0.00 | 36 | 1018.3 |
| 20260507133733 | 24 | 191 | 8.0 | 12.9 | 0.00 | 0.00 | 0.00 | 36 | 1018.3 |
| 20260507133634 | 24 | 219 | 8.0 | 17.7 | 0.00 | 0.00 | 0.00 | 35 | 1018.4 |
| 20260507133534 | 24 | 222 | 8.0 | 17.7 | 0.00 | 0.00 | 0.00 | 37 | 1018.5 |
| 20260507133434 | 24 | 235 | 8.0 | 17.7 | 0.00 | 0.00 | 0.00 | 39 | 1018.5 |
| 20260507133332 | 24 | 255 | 8.0 | 17.7 | 0.00 | 0.00 | 0.00 | 38 | 1018.5 |
| 20260507133232 | 24 | 216 | 8.0 | 17.7 | 0.00 | 0.00 | 0.00 | 39 | 1018.5 |
| 20260507133133 | 24 | 247 | 8.0 | 17.7 | 0.00 | 0.00 | 0.00 | 40 | 1018.5 |
| 20260507133033 | 24 | 253 | 8.0 | 17.7 | 0.00 | 0.00 | 0.00 | 39 | 1018.5 |
| 20260507132931 | 24 | 221 | 8.0 | 17.7 | 0.00 | 0.00 | 0.00 | 38 | 1018.4 |
| 20260507132834 | 24 | 214 | 8.0 | 17.7 | 0.00 | 0.00 | 0.00 | 37 | 1018.3 |
| 20260507132731 | 24 | 219 | 8.0 | 17.7 | 0.00 | 0.00 | 0.00 | 37 | 1018.3 |
| 20260507132631 | 24 | 257 | 8.0 | 12.9 | 0.00 | 0.00 | 0.00 | 36 | 1018.3 |
| 20260507132531 | 24 | 226 | 8.0 | 12.9 | 0.00 | 0.00 | 0.00 | 34 | 1018.3 |
| 20260507132433 | 24 | 219 | 8.0 | 12.9 | 0.00 | 0.00 | 0.00 | 32 | 1018.3 |
| 20260507132331 | 24 | 203 | 8.0 | 14.5 | 0.00 | 0.00 | 0.00 | 33 | 1018.2 |
| 20260507132232 | 24 | 253 | 8.0 | 14.5 | 0.00 | 0.00 | 0.00 | 35 | 1018.3 |
| 20260507132130 | 24 | 214 | 8.0 | 14.5 | 0.00 | 0.00 | 0.00 | 35 | 1018.3 |
| 20260507132030 | 24 | 235 | 8.0 | 14.5 | 0.00 | 0.00 | 0.00 | 35 | 1018.3 |
| 20260507131941 | 24 | 239 | 8.0 | 14.5 | 0.00 | 0.00 | 0.00 | 36 | 1018.2 |
| 20260507131833 | 24 | 247 | 8.0 | 14.5 | 0.00 | 0.00 | 0.00 | 36 | 1018.2 |
| 20260507131725 | 25 | 204 | 8.0 | 14.5 | 0.00 | 0.00 | 0.00 | 35 | 1018.3 |
| 20260507131623 | 24 | 193 | 8.0 | 14.5 | 0.00 | 0.00 | 0.00 | 37 | 1018.3 |
| 20260507131524 | 24 | 208 | 8.0 | 14.5 | 0.00 | 0.00 | 0.00 | 36 | 1018.3 |
| 20260507131427 | 24 | 255 | 8.0 | 14.5 | 0.00 | 0.00 | 0.00 | 38 | 1018.3 |
| 20260507131325 | 24 | 222 | 8.0 | 14.5 | 0.00 | 0.00 | 0.00 | 38 | 1018.3 |
| 20260507131221 | 25 | 220 | 6.4 | 14.5 | 0.00 | 0.00 | 0.00 | 38 | 1018.3 |
| 20260507131119 | 25 | 263 | 8.0 | 14.5 | 0.00 | 0.00 | 0.00 | 37 | 1018.3 |
| 20260507131020 | 25 | 251 | 8.0 | 14.5 | 0.00 | 0.00 | 0.00 | 36 | 1018.3 |
| 20260507130921 | 25 | 228 | 8.0 | 14.5 | 0.00 | 0.00 | 0.00 | 36 | 1018.2 |
| 20260507130819 | 25 | 241 | 8.0 | 14.5 | 0.00 | 0.00 | 0.00 | 34 | 1018.2 |
| 20260507130716 | 25 | 207 | 8.0 | 14.5 | 0.00 | 0.00 | 0.00 | 34 | 1018.2 |
| 20260507130626 | 25 | 216 | 8.0 | 14.5 | 0.00 | 0.00 | 0.00 | 33 | 1018.3 |
| 20260507130511 | 25 | 243 | 8.0 | 14.5 | 0.00 | 0.00 | 0.00 | 33 | 1018.3 |
| 20260507130412 | 25 | 218 | 8.0 | 14.5 | 0.00 | 0.00 | 0.00 | 34 | 1018.4 |
| 20260507130313 | 25 | 218 | 8.0 | 14.5 | 0.00 | 0.00 | 0.00 | 33 | 1018.5 |
| 20260507130207 | 25 | 212 | 8.0 | 14.5 | 0.00 | 0.00 | 0.00 | 31 | 1018.6 |
| 20260507130107 | 25 | 216 | 8.0 | 16.1 | 0.00 | 0.00 | 0.00 | 32 | 1018.5 |
| 20260507130005 | 25 | 239 | 8.0 | 16.1 | 0.00 | 0.00 | 0.00 | 34 | 1018.6 |
| 20260507125905 | 25 | 259 | 8.0 | 16.1 | 0.00 | 0.00 | 0.00 | 34 | 1018.6 |
| 20260507125805 | 25 | 218 | 8.0 | 16.1 | 0.00 | 0.00 | 0.00 | 35 | 1018.6 |
| 20260507125704 | 25 | 222 | 8.0 | 16.1 | 0.00 | 0.00 | 0.00 | 37 | 1018.7 |
| 20260507125604 | 25 | 237 | 8.0 | 16.1 | 0.00 | 0.00 | 0.00 | 37 | 1018.6 |
| 20260507125505 | 25 | 258 | 8.0 | 16.1 | 0.00 | 0.00 | 0.00 | 37 | 1018.7 |
| 20260507125404 | 25 | 230 | 8.0 | 16.1 | 0.00 | 0.00 | 0.00 | 37 | 1018.8 |
| 20260507125306 | 25 | 210 | 8.0 | 16.1 | 0.00 | 0.00 | 0.00 | 38 | 1018.8 |
| 20260507125203 | 25 | 212 | 8.0 | 16.1 | 0.00 | 0.00 | 0.00 | 38 | 1018.8 |
| 20260507125104 | 25 | 216 | 8.0 | 16.1 | 0.00 | 0.00 | 0.00 | 39 | 1018.8 |
| 20260507125004 | 24 | 243 | 9.7 | 14.5 | 0.00 | 0.00 | 0.00 | 39 | 1018.8 |
| 20260507124903 | 24 | 242 | 9.7 | 14.5 | 0.00 | 0.00 | 0.00 | 40 | 1018.8 |
| 20260507124803 | 24 | 222 | 9.7 | 17.7 | 0.00 | 0.00 | 0.00 | 41 | 1018.7 |
| 20260507124703 | 24 | 229 | 8.0 | 17.7 | 0.00 | 0.00 | 0.00 | 39 | 1018.6 |
| 20260507124605 | 24 | 243 | 9.7 | 17.7 | 0.00 | 0.00 | 0.00 | 40 | 1018.6 |
| 20260507124505 | 24 | 233 | 9.7 | 17.7 | 0.00 | 0.00 | 0.00 | 42 | 1018.6 |
| 20260507124403 | 24 | 233 | 9.7 | 17.7 | 0.00 | 0.00 | 0.00 | 42 | 1018.6 |
| 20260507124312 | 24 | 224 | 9.7 | 19.3 | 0.00 | 0.00 | 0.00 | 42 | 1018.6 |
| 20260507124202 | 24 | 222 | 11.3 | 19.3 | 0.00 | 0.00 | 0.00 | 42 | 1018.7 |
| 20260507124104 | 24 | 224 | 9.7 | 19.3 | 0.00 | 0.00 | 0.00 | 42 | 1018.8 |
| 20260507124003 | 25 | 201 | 11.3 | 19.3 | 0.00 | 0.00 | 0.00 | 42 | 1018.8 |
| 20260507123901 | 25 | 220 | 9.7 | 19.3 | 0.00 | 0.00 | 0.00 | 43 | 1018.7 |
| 20260507123801 | 24 | 223 | 11.3 | 19.3 | 0.00 | 0.00 | 0.00 | 43 | 1018.8 |
| 20260507123701 | 24 | 218 | 11.3 | 19.3 | 0.00 | 0.00 | 0.00 | 43 | 1018.9 |
| 20260507123603 | 24 | 201 | 11.3 | 19.3 | 0.00 | 0.00 | 0.00 | 43 | 1018.8 |
| 20260507123454 | 24 | 197 | 11.3 | 19.3 | 0.00 | 0.00 | 0.00 | 42 | 1018.9 |
| 20260507123355 | 24 | 230 | 11.3 | 19.3 | 0.00 | 0.00 | 0.00 | 44 | 1018.9 |
| 20260507123255 | 24 | 214 | 11.3 | 19.3 | 0.00 | 0.00 | 0.00 | 43 | 1018.8 |
| 20260507123154 | 24 | 229 | 11.3 | 19.3 | 0.00 | 0.00 | 0.00 | 42 | 1018.8 |
| 20260507123055 | 24 | 225 | 11.3 | 19.3 | 0.00 | 0.00 | 0.00 | 42 | 1018.8 |
| 20260507122950 | 24 | 220 | 11.3 | 19.3 | 0.00 | 0.00 | 0.00 | 44 | 1018.8 |
| 20260507122850 | 24 | 251 | 11.3 | 19.3 | 0.00 | 0.00 | 0.00 | 43 | 1018.8 |
| 20260507122751 | 25 | 205 | 12.9 | 19.3 | 0.00 | 0.00 | 0.00 | 43 | 1018.8 |
| 20260507122650 | 25 | 207 | 12.9 | 19.3 | 0.00 | 0.00 | 0.00 | 44 | 1018.8 |
| 20260507122549 | 25 | 247 | 12.9 | 19.3 | 0.00 | 0.00 | 0.00 | 44 | 1018.9 |
| 20260507122443 | 25 | 236 | 11.3 | 19.3 | 0.00 | 0.00 | 0.00 | 44 | 1018.8 |
| 20260507122342 | 25 | 212 | 11.3 | 19.3 | 0.00 | 0.00 | 0.00 | 46 | 1018.8 |
| 20260507122300 | 24 | 234 | 12.9 | 22.5 | 0.00 | 0.00 | 0.00 | 45 | 1018.8 |
| 20260507122143 | 24 | 196 | 12.9 | 22.5 | 0.00 | 0.00 | 0.00 | 44 | 1018.9 |
| 20260507122042 | 24 | 201 | 12.9 | 22.5 | 0.00 | 0.00 | 0.00 | 42 | 1018.9 |
| 20260507121937 | 24 | 216 | 12.9 | 22.5 | 0.00 | 0.00 | 0.00 | 39 | 1018.9 |
| 20260507121836 | 24 | 218 | 11.3 | 22.5 | 0.00 | 0.00 | 0.00 | 39 | 1018.9 |
| 20260507121737 | 24 | 235 | 11.3 | 22.5 | 0.00 | 0.00 | 0.00 | 40 | 1018.9 |
| 20260507121637 | 24 | 223 | 11.3 | 22.5 | 0.00 | 0.00 | 0.00 | 42 | 1018.8 |
| 20260507121536 | 24 | 240 | 11.3 | 22.5 | 0.00 | 0.00 | 0.00 | 41 | 1018.9 |
| 20260507121433 | 24 | 267 | 11.3 | 22.5 | 0.00 | 0.00 | 0.00 | 41 | 1018.8 |
| 20260507121332 | 25 | 230 | 11.3 | 22.5 | 0.00 | 0.00 | 0.00 | 40 | 1018.8 |
| 20260507121232 | 25 | 226 | 11.3 | 20.9 | 0.00 | 0.00 | 0.00 | 42 | 1018.7 |
| 20260507121133 | 25 | 187 | 11.3 | 20.9 | 0.00 | 0.00 | 0.00 | 42 | 1018.8 |
| 20260507121031 | 25 | 245 | 11.3 | 20.9 | 0.00 | 0.00 | 0.00 | 44 | 1018.8 |
| 20260507120933 | 25 | 214 | 11.3 | 20.9 | 0.00 | 0.00 | 0.00 | 43 | 1018.8 |
| 20260507120831 | 25 | 230 | 11.3 | 20.9 | 0.00 | 0.00 | 0.00 | 42 | 1018.8 |
| 20260507120732 | 24 | 225 | 12.9 | 20.9 | 0.00 | 0.00 | 0.00 | 41 | 1018.8 |
| 20260507120633 | 24 | 212 | 12.9 | 22.5 | 0.00 | 0.00 | 0.00 | 40 | 1018.8 |
| 20260507120531 | 24 | 229 | 12.9 | 22.5 | 0.00 | 0.00 | 0.00 | 38 | 1018.8 |
| 20260507120436 | 25 | 270 | 12.9 | 22.5 | 0.00 | 0.00 | 0.00 | 39 | 1018.8 |
| 20260507120332 | 25 | 231 | 12.9 | 22.5 | 0.00 | 0.00 | 0.00 | 40 | 1018.8 |
| 20260507120231 | 25 | 223 | 12.9 | 22.5 | 0.00 | 0.00 | 0.00 | 41 | 1018.8 |
| 20260507120133 | 25 | 222 | 12.9 | 22.5 | 0.00 | 0.00 | 0.00 | 41 | 1018.8 |
| 20260507120031 | 25 | 199 | 12.9 | 22.5 | 0.00 | 0.00 | 0.00 | 40 | 1018.8 |
| 20260507115933 | 25 | 197 | 12.9 | 22.5 | 0.00 | 0.00 | 0.00 | 40 | 1018.8 |
| 20260507115831 | 25 | 216 | 12.9 | 22.5 | 0.00 | 0.00 | 0.00 | 39 | 1018.8 |
| 20260507115630 | 25 | 217 | 11.3 | 22.5 | 0.00 | 0.00 | 0.00 | 37 | 1018.8 |
| 20260507115531 | 25 | 205 | 11.3 | 22.5 | 0.00 | 0.00 | 0.00 | 37 | 1018.7 |
| 20260507115430 | 25 | 208 | 12.9 | 22.5 | 0.00 | 0.00 | 0.00 | 37 | 1018.7 |
| 20260507115331 | 25 | 246 | 11.3 | 22.5 | 0.00 | 0.00 | 0.00 | 37 | 1018.7 |
| 20260507115225 | 25 | 257 | 11.3 | 22.5 | 0.00 | 0.00 | 0.00 | 39 | 1018.7 |
| 20260507115142 | 25 | 211 | 11.3 | 22.5 | 0.00 | 0.00 | 0.00 | 37 | 1018.6 |
| 20260507115037 | 25 | 213 | 11.3 | 22.5 | 0.00 | 0.00 | 0.00 | 36 | 1018.6 |
| 20260507114934 | 25 | 218 | 11.3 | 22.5 | 0.00 | 0.00 | 0.00 | 38 | 1018.6 |
| 20260507114828 | 25 | 209 | 11.3 | 22.5 | 0.00 | 0.00 | 0.00 | 36 | 1018.6 |
| 20260507114718 | 25 | 183 | 11.3 | 22.5 | 0.00 | 0.00 | 0.00 | 35 | 1018.6 |
| 20260507114618 | 25 | 212 | 11.3 | 19.3 | 0.00 | 0.00 | 0.00 | 33 | 1018.5 |
| 20260507114521 | 25 | 218 | 11.3 | 19.3 | 0.00 | 0.00 | 0.00 | 32 | 1018.5 |
| 20260507114419 | 25 | 214 | 11.3 | 22.5 | 0.00 | 0.00 | 0.00 | 36 | 1018.5 |
| 20260507114318 | 25 | 245 | 12.9 | 22.5 | 0.00 | 0.00 | 0.00 | 35 | 1018.5 |
| 20260507114211 | 25 | 210 | 12.9 | 22.5 | 0.00 | 0.00 | 0.00 | 33 | 1018.5 |
| 20260507114114 | 25 | 247 | 12.9 | 22.5 | 0.00 | 0.00 | 0.00 | 33 | 1018.5 |
| 20260507114013 | 25 | 224 | 12.9 | 22.5 | 0.00 | 0.00 | 0.00 | 33 | 1018.5 |
| 20260507113911 | 25 | 246 | 12.9 | 22.5 | 0.00 | 0.00 | 0.00 | 34 | 1018.5 |
| 20260507113813 | 25 | 254 | 12.9 | 22.5 | 0.00 | 0.00 | 0.00 | 33 | 1018.4 |
| 20260507113706 | 25 | 220 | 12.9 | 22.5 | 0.00 | 0.00 | 0.00 | 30 | 1018.4 |
| 20260507113605 | 25 | 220 | 12.9 | 22.5 | 0.00 | 0.00 | 0.00 | 30 | 1018.5 |
| 20260507113506 | 25 | 179 | 12.9 | 22.5 | 0.00 | 0.00 | 0.00 | 28 | 1018.5 |
| 20260507113406 | 25 | 228 | 12.9 | 19.3 | 0.00 | 0.00 | 0.00 | 27 | 1018.5 |
| 20260507113305 | 25 | 223 | 11.3 | 19.3 | 0.00 | 0.00 | 0.00 | 28 | 1018.5 |
| 20260507113203 | 25 | 216 | 11.3 | 19.3 | 0.00 | 0.00 | 0.00 | 28 | 1018.5 |
| 20260507113104 | 26 | 225 | 11.3 | 19.3 | 0.00 | 0.00 | 0.00 | 26 | 1018.5 |
| 20260507113004 | 26 | 231 | 11.3 | 19.3 | 0.00 | 0.00 | 0.00 | 27 | 1018.4 |
| 20260507112904 | 26 | 257 | 11.3 | 19.3 | 0.00 | 0.00 | 0.00 | 26 | 1018.5 |
| 20260507112803 | 26 | 217 | 11.3 | 19.3 | 0.00 | 0.00 | 0.00 | 25 | 1018.4 |
| 20260507112716 | 26 | 222 | 11.3 | 19.3 | 0.00 | 0.00 | 0.00 | 27 | 1018.4 |
| 20260507112604 | 26 | 218 | 11.3 | 19.3 | 0.00 | 0.00 | 0.00 | 28 | 1018.4 |
| 20260507112502 | 26 | 220 | 11.3 | 19.3 | 0.00 | 0.00 | 0.00 | 29 | 1018.4 |
| 20260507112403 | 26 | 189 | 9.7 | 19.3 | 0.00 | 0.00 | 0.00 | 30 | 1018.4 |
| 20260507112306 | 26 | 214 | 9.7 | 17.7 | 0.00 | 0.00 | 0.00 | 29 | 1018.4 |
| 20260507112204 | 26 | 213 | 9.7 | 17.7 | 0.00 | 0.00 | 0.00 | 28 | 1018.4 |
| 20260507112104 | 26 | 279 | 9.7 | 17.7 | 0.00 | 0.00 | 0.00 | 30 | 1018.4 |
| 20260507112004 | 26 | 210 | 9.7 | 17.7 | 0.00 | 0.00 | 0.00 | 33 | 1018.5 |
| 20260507111902 | 25 | 210 | 9.7 | 17.7 | 0.00 | 0.00 | 0.00 | 32 | 1018.4 |
| 20260507111803 | 25 | 220 | 9.7 | 17.7 | 0.00 | 0.00 | 0.00 | 29 | 1018.4 |
| 20260507111703 | 25 | 266 | 9.7 | 16.1 | 0.00 | 0.00 | 0.00 | 31 | 1018.4 |
| 20260507111604 | 25 | 211 | 9.7 | 16.1 | 0.00 | 0.00 | 0.00 | 32 | 1018.4 |
| 20260507111503 | 25 | 221 | 9.7 | 17.7 | 0.00 | 0.00 | 0.00 | 30 | 1018.5 |
| 20260507111403 | 25 | 212 | 11.3 | 17.7 | 0.00 | 0.00 | 0.00 | 27 | 1018.3 |
| 20260507111303 | 25 | 268 | 11.3 | 17.7 | 0.00 | 0.00 | 0.00 | 27 | 1018.5 |
| 20260507111202 | 25 | 232 | 11.3 | 17.7 | 0.00 | 0.00 | 0.00 | 27 | 1018.4 |
| 20260507111104 | 25 | 243 | 11.3 | 17.7 | 0.00 | 0.00 | 0.00 | 27 | 1018.4 |
| 20260507111003 | 25 | 239 | 11.3 | 19.3 | 0.00 | 0.00 | 0.00 | 29 | 1018.3 |
| 20260507110903 | 25 | 230 | 12.9 | 24.1 | 0.00 | 0.00 | 0.00 | 29 | 1018.3 |
| 20260507110802 | 25 | 226 | 12.9 | 24.1 | 0.00 | 0.00 | 0.00 | 29 | 1018.3 |
| 20260507110707 | 25 | 205 | 12.9 | 24.1 | 0.00 | 0.00 | 0.00 | 28 | 1018.3 |
| 20260507110603 | 25 | 216 | 12.9 | 24.1 | 0.00 | 0.00 | 0.00 | 31 | 1018.3 |
| 20260507110504 | 25 | 200 | 12.9 | 24.1 | 0.00 | 0.00 | 0.00 | 30 | 1018.3 |
| 20260507110402 | 25 | 216 | 12.9 | 24.1 | 0.00 | 0.00 | 0.00 | 31 | 1018.3 |
| 20260507110304 | 25 | 223 | 12.9 | 24.1 | 0.00 | 0.00 | 0.00 | 33 | 1018.4 |
| 20260507110202 | 25 | 225 | 12.9 | 24.1 | 0.00 | 0.00 | 0.00 | 33 | 1018.3 |
| 20260507110112 | 25 | 187 | 12.9 | 24.1 | 0.00 | 0.00 | 0.00 | 34 | 1018.3 |
| 20260507110010 | 25 | 200 | 12.9 | 24.1 | 0.00 | 0.00 | 0.00 | 33 | 1018.4 |
| 20260507105907 | 25 | 186 | 12.9 | 20.9 | 0.00 | 0.00 | 0.00 | 36 | 1018.4 |
| 20260507105803 | 25 | 239 | 12.9 | 20.9 | 0.00 | 0.00 | 0.00 | 35 | 1018.4 |
| 20260507105703 | 25 | 207 | 12.9 | 22.5 | 0.00 | 0.00 | 0.00 | 34 | 1018.4 |
| 20260507105603 | 25 | 205 | 12.9 | 22.5 | 0.00 | 0.00 | 0.00 | 32 | 1018.4 |
| 20260507105502 | 25 | 222 | 12.9 | 22.5 | 0.00 | 0.00 | 0.00 | 35 | 1018.5 |
| 20260507105404 | 25 | 212 | 12.9 | 22.5 | 0.00 | 0.00 | 0.00 | 36 | 1018.5 |
| 20260507105306 | 25 | 227 | 11.3 | 22.5 | 0.00 | 0.00 | 0.00 | 35 | 1018.5 |
| 20260507105203 | 25 | 218 | 11.3 | 22.5 | 0.00 | 0.00 | 0.00 | 31 | 1018.5 |
| 20260507105103 | 25 | 260 | 11.3 | 22.5 | 0.00 | 0.00 | 0.00 | 31 | 1018.5 |
| 20260507105002 | 25 | 230 | 11.3 | 22.5 | 0.00 | 0.00 | 0.00 | 33 | 1018.5 |
| 20260507104902 | 25 | 226 | 11.3 | 22.5 | 0.00 | 0.00 | 0.00 | 34 | 1018.4 |
| 20260507104802 | 25 | 213 | 11.3 | 22.5 | 0.00 | 0.00 | 0.00 | 35 | 1018.5 |
| 20260507104703 | 25 | 221 | 9.7 | 20.9 | 0.00 | 0.00 | 0.00 | 36 | 1018.5 |
| 20260507104604 | 25 | 233 | 9.7 | 20.9 | 0.00 | 0.00 | 0.00 | 35 | 1018.3 |
| 20260507104504 | 25 | 228 | 9.7 | 17.7 | 0.00 | 0.00 | 0.00 | 36 | 1018.4 |
| 20260507104403 | 25 | 278 | 9.7 | 17.7 | 0.00 | 0.00 | 0.00 | 36 | 1018.3 |
| 20260507104303 | 25 | 264 | 9.7 | 16.1 | 0.00 | 0.00 | 0.00 | 35 | 1018.4 |
| 20260507104205 | 25 | 212 | 9.7 | 16.1 | 0.00 | 0.00 | 0.00 | 36 | 1018.3 |
| 20260507104100 | 25 | 232 | 9.7 | 16.1 | 0.00 | 0.00 | 0.00 | 33 | 1018.3 |
| 20260507104001 | 25 | 231 | 9.7 | 16.1 | 0.00 | 0.00 | 0.00 | 33 | 1018.3 |
| 20260507103900 | 26 | 294 | 9.7 | 16.1 | 0.00 | 0.00 | 0.00 | 34 | 1018.3 |
| 20260507103759 | 26 | 255 | 9.7 | 16.1 | 0.00 | 0.00 | 0.00 | 33 | 1018.3 |
| 20260507103703 | 26 | 238 | 9.7 | 16.1 | 0.00 | 0.00 | 0.00 | 37 | 1018.2 |
| 20260507103554 | 26 | 244 | 9.7 | 16.1 | 0.00 | 0.00 | 0.00 | 37 | 1018.3 |
| 20260507103456 | 25 | 226 | 9.7 | 16.1 | 0.00 | 0.00 | 0.00 | 34 | 1018.2 |
| 20260507103355 | 25 | 189 | 8.0 | 16.1 | 0.00 | 0.00 | 0.00 | 34 | 1018.2 |
| 20260507103253 | 25 | 164 | 9.7 | 16.1 | 0.00 | 0.00 | 0.00 | 34 | 1018.2 |
| 20260507103152 | 25 | 210 | 9.7 | 16.1 | 0.00 | 0.00 | 0.00 | 34 | 1018.2 |
| 20260507103049 | 25 | 202 | 9.7 | 16.1 | 0.00 | 0.00 | 0.00 | 33 | 1018.1 |
| 20260507102947 | 25 | 203 | 9.7 | 17.7 | 0.00 | 0.00 | 0.00 | 34 | 1018.2 |
| 20260507102846 | 25 | 246 | 9.7 | 17.7 | 0.00 | 0.00 | 0.00 | 34 | 1018.2 |
| 20260507102746 | 25 | 181 | 9.7 | 17.7 | 0.00 | 0.00 | 0.00 | 35 | 1018.1 |
| 20260507102647 | 25 | 197 | 9.7 | 17.7 | 0.00 | 0.00 | 0.00 | 35 | 1018.2 |
| 20260507102540 | 25 | 183 | 9.7 | 20.9 | 0.00 | 0.00 | 0.00 | 35 | 1018.1 |
| 20260507102439 | 25 | 266 | 9.7 | 20.9 | 0.00 | 0.00 | 0.00 | 34 | 1018.1 |
| 20260507102341 | 25 | 216 | 9.7 | 20.9 | 0.00 | 0.00 | 0.00 | 35 | 1018.2 |
| 20260507102240 | 25 | 200 | 9.7 | 20.9 | 0.00 | 0.00 | 0.00 | 35 | 1018.2 |
| 20260507102140 | 25 | 219 | 9.7 | 20.9 | 0.00 | 0.00 | 0.00 | 36 | 1018.3 |
| 20260507102035 | 25 | 212 | 9.7 | 20.9 | 0.00 | 0.00 | 0.00 | 34 | 1018.2 |
| 20260507101934 | 25 | 253 | 9.7 | 20.9 | 0.00 | 0.00 | 0.00 | 36 | 1018.3 |
| 20260507101833 | 25 | 214 | 9.7 | 20.9 | 0.00 | 0.00 | 0.00 | 36 | 1018.3 |
| 20260507101734 | 25 | 205 | 9.7 | 20.9 | 0.00 | 0.00 | 0.00 | 34 | 1018.3 |
| 20260507101633 | 25 | 195 | 9.7 | 20.9 | 0.00 | 0.00 | 0.00 | 34 | 1018.3 |
| 20260507101534 | 25 | 185 | 9.7 | 17.7 | 0.00 | 0.00 | 0.00 | 36 | 1018.4 |
| 20260507101433 | 25 | 224 | 9.7 | 17.7 | 0.00 | 0.00 | 0.00 | 36 | 1018.4 |
| 20260507101335 | 25 | 181 | 11.3 | 17.7 | 0.00 | 0.00 | 0.00 | 34 | 1018.4 |
| 20260507101235 | 25 | 205 | 11.3 | 17.7 | 0.00 | 0.00 | 0.00 | 35 | 1018.5 |
| 20260507101132 | 24 | 207 | 11.3 | 17.7 | 0.00 | 0.00 | 0.00 | 36 | 1018.4 |
| 20260507101032 | 24 | 208 | 9.7 | 17.7 | 0.00 | 0.00 | 0.00 | 35 | 1018.4 |
| 20260507100933 | 24 | 207 | 9.7 | 17.7 | 0.00 | 0.00 | 0.00 | 38 | 1018.5 |
| 20260507100831 | 24 | 203 | 9.7 | 17.7 | 0.00 | 0.00 | 0.00 | 41 | 1018.5 |
| 20260507100732 | 24 | 224 | 9.7 | 17.7 | 0.00 | 0.00 | 0.00 | 39 | 1018.6 |
| 20260507100632 | 24 | 197 | 9.7 | 22.5 | 0.00 | 0.00 | 0.00 | 37 | 1018.6 |
| 20260507100532 | 25 | 237 | 11.3 | 22.5 | 0.00 | 0.00 | 0.00 | 35 | 1018.6 |
| 20260507100433 | 25 | 236 | 11.3 | 22.5 | 0.00 | 0.00 | 0.00 | 36 | 1018.6 |
| 20260507100331 | 25 | 196 | 11.3 | 22.5 | 0.00 | 0.00 | 0.00 | 36 | 1018.6 |
| 20260507100233 | 25 | 208 | 11.3 | 22.5 | 0.00 | 0.00 | 0.00 | 37 | 1018.6 |
| 20260507100131 | 25 | 233 | 9.7 | 22.5 | 0.00 | 0.00 | 0.00 | 34 | 1018.6 |
| 20260507100032 | 25 | 132 | 9.7 | 22.5 | 0.00 | 0.00 | 0.00 | 33 | 1018.6 |
| 20260507095933 | 25 | 216 | 11.3 | 22.5 | 0.00 | 0.00 | 0.00 | 35 | 1018.6 |
| 20260507095831 | 25 | 216 | 11.3 | 22.5 | 0.00 | 0.00 | 0.00 | 35 | 1018.6 |
| 20260507095732 | 25 | 172 | 11.3 | 22.5 | 0.00 | 0.00 | 0.00 | 32 | 1018.7 |
| 20260507095632 | 25 | 205 | 11.3 | 20.9 | 0.00 | 0.00 | 0.00 | 39 | 1018.7 |
| 20260507095534 | 25 | 215 | 11.3 | 19.3 | 0.00 | 0.00 | 0.00 | 40 | 1018.7 |
| 20260507095433 | 25 | 218 | 11.3 | 19.3 | 0.00 | 0.00 | 0.00 | 37 | 1018.7 |
| 20260507095332 | 25 | 210 | 11.3 | 19.3 | 0.00 | 0.00 | 0.00 | 38 | 1018.7 |
| 20260507095232 | 25 | 222 | 11.3 | 19.3 | 0.00 | 0.00 | 0.00 | 38 | 1018.7 |
| 20260507095131 | 24 | 212 | 11.3 | 19.3 | 0.00 | 0.00 | 0.00 | 39 | 1018.7 |
| 20260507095031 | 24 | 240 | 11.3 | 19.3 | 0.00 | 0.00 | 0.00 | 35 | 1018.8 |
| 20260507094933 | 24 | 191 | 11.3 | 19.3 | 0.00 | 0.00 | 0.00 | 35 | 1018.9 |
| 20260507094832 | 24 | 204 | 11.3 | 19.3 | 0.00 | 0.00 | 0.00 | 36 | 1018.9 |
| 20260507094732 | 24 | 221 | 11.3 | 19.3 | 0.00 | 0.00 | 0.00 | 39 | 1018.9 |
| 20260507094633 | 24 | 210 | 11.3 | 19.3 | 0.00 | 0.00 | 0.00 | 40 | 1018.8 |
| 20260507094529 | 24 | 222 | 11.3 | 19.3 | 0.00 | 0.00 | 0.00 | 39 | 1018.8 |
| 20260507094430 | 25 | 207 | 11.3 | 19.3 | 0.00 | 0.00 | 0.00 | 40 | 1018.8 |
| 20260507094330 | 24 | 166 | 11.3 | 19.3 | 0.00 | 0.00 | 0.00 | 40 | 1018.8 |
| 20260507094229 | 24 | 254 | 11.3 | 19.3 | 0.00 | 0.00 | 0.00 | 38 | 1018.8 |
| 20260507094131 | 24 | 222 | 11.3 | 19.3 | 0.00 | 0.00 | 0.00 | 37 | 1018.8 |
| 20260507094029 | 24 | 196 | 11.3 | 19.3 | 0.00 | 0.00 | 0.00 | 37 | 1018.9 |
| 20260507093929 | 24 | 220 | 11.3 | 20.9 | 0.00 | 0.00 | 0.00 | 38 | 1018.9 |
| 20260507093830 | 24 | 193 | 11.3 | 20.9 | 0.00 | 0.00 | 0.00 | 38 | 1018.9 |
| 20260507093732 | 24 | 255 | 11.3 | 20.9 | 0.00 | 0.00 | 0.00 | 40 | 1018.9 |
| 20260507093627 | 24 | 214 | 11.3 | 20.9 | 0.00 | 0.00 | 0.00 | 41 | 1018.8 |
| 20260507093527 | 24 | 221 | 11.3 | 20.9 | 0.00 | 0.00 | 0.00 | 41 | 1018.8 |
| 20260507093428 | 24 | 255 | 11.3 | 20.9 | 0.00 | 0.00 | 0.00 | 40 | 1018.8 |
| 20260507093327 | 24 | 241 | 11.3 | 20.9 | 0.00 | 0.00 | 0.00 | 42 | 1018.7 |
| 20260507093226 | 24 | 212 | 12.9 | 20.9 | 0.00 | 0.00 | 0.00 | 40 | 1018.8 |
| 20260507093125 | 23 | 187 | 12.9 | 25.7 | 0.00 | 0.00 | 0.00 | 40 | 1018.8 |
| 20260507093027 | 23 | 186 | 12.9 | 25.7 | 0.00 | 0.00 | 0.00 | 43 | 1018.7 |
| 20260507092921 | 23 | 223 | 12.9 | 25.7 | 0.00 | 0.00 | 0.00 | 43 | 1018.8 |
| 20260507092823 | 23 | 187 | 12.9 | 25.7 | 0.00 | 0.00 | 0.00 | 46 | 1018.8 |
| 20260507092724 | 23 | 222 | 12.9 | 25.7 | 0.00 | 0.00 | 0.00 | 47 | 1018.8 |
| 20260507092621 | 23 | 206 | 12.9 | 25.7 | 0.00 | 0.00 | 0.00 | 45 | 1018.8 |
| 20260507092522 | 23 | 183 | 12.9 | 25.7 | 0.00 | 0.00 | 0.00 | 45 | 1018.8 |
| 20260507092421 | 23 | 201 | 12.9 | 25.7 | 0.00 | 0.00 | 0.00 | 48 | 1018.9 |
| 20260507092322 | 23 | 202 | 12.9 | 25.7 | 0.00 | 0.00 | 0.00 | 49 | 1018.9 |
| 20260507092222 | 23 | 186 | 11.3 | 25.7 | 0.00 | 0.00 | 0.00 | 50 | 1018.9 |
| 20260507092121 | 23 | 189 | 11.3 | 20.9 | 0.00 | 0.00 | 0.00 | 51 | 1018.9 |
| 20260507092022 | 23 | 204 | 11.3 | 19.3 | 0.00 | 0.00 | 0.00 | 55 | 1018.9 |
| 20260507091921 | 23 | 222 | 11.3 | 19.3 | 0.00 | 0.00 | 0.00 | 56 | 1018.9 |
| 20260507091824 | 23 | 190 | 11.3 | 20.9 | 0.00 | 0.00 | 0.00 | 55 | 1018.9 |
| 20260507091721 | 23 | 260 | 11.3 | 20.9 | 0.00 | 0.00 | 0.00 | 55 | 1019.0 |
| 20260507091622 | 23 | 220 | 11.3 | 20.9 | 0.00 | 0.00 | 0.00 | 56 | 1019.0 |
| 20260507091521 | 23 | 285 | 11.3 | 20.9 | 0.00 | 0.00 | 0.00 | 57 | 1019.0 |
| 20260507091422 | 23 | 222 | 11.3 | 20.9 | 0.00 | 0.00 | 0.00 | 58 | 1019.1 |
| 20260507091322 | 23 | 187 | 11.3 | 25.7 | 0.00 | 0.00 | 0.00 | 58 | 1019.1 |
| 20260507091221 | 22 | 181 | 11.3 | 25.7 | 0.00 | 0.00 | 0.00 | 57 | 1019.2 |
| 20260507091123 | 22 | 228 | 12.9 | 25.7 | 0.00 | 0.00 | 0.00 | 58 | 1019.1 |
| 20260507091017 | 22 | 228 | 12.9 | 25.7 | 0.00 | 0.00 | 0.00 | 58 | 1019.1 |
| 20260507090917 | 22 | 221 | 12.9 | 25.7 | 0.00 | 0.00 | 0.00 | 59 | 1019.2 |
| 20260507090819 | 22 | 237 | 11.3 | 25.7 | 0.00 | 0.00 | 0.00 | 60 | 1019.1 |
| 20260507090718 | 22 | 269 | 11.3 | 25.7 | 0.00 | 0.00 | 0.00 | 59 | 1019.1 |
| 20260507090617 | 22 | 204 | 12.9 | 25.7 | 0.00 | 0.00 | 0.00 | 59 | 1019.1 |
| 20260507090518 | 23 | 251 | 12.9 | 25.7 | 0.00 | 0.00 | 0.00 | 58 | 1019.1 |
| 20260507090418 | 23 | 240 | 12.9 | 25.7 | 0.00 | 0.00 | 0.00 | 58 | 1019.0 |
| 20260507090317 | 23 | 236 | 11.3 | 24.1 | 0.00 | 0.00 | 0.00 | 59 | 1019.1 |
| 20260507090218 | 23 | 201 | 11.3 | 24.1 | 0.00 | 0.00 | 0.00 | 58 | 1019.0 |
| 20260507090117 | 23 | 234 | 11.3 | 22.5 | 0.00 | 0.00 | 0.00 | 59 | 1019.0 |
| 20260507090019 | 23 | 269 | 11.3 | 20.9 | 0.00 | 0.00 | 0.00 | 58 | 1018.9 |
| 20260507085918 | 23 | 212 | 11.3 | 24.1 | 0.00 | 0.00 | 0.00 | 56 | 1018.9 |
| 20260507085819 | 23 | 218 | 11.3 | 24.1 | 0.00 | 0.00 | 0.00 | 56 | 1019.0 |
| 20260507085717 | 23 | 245 | 11.3 | 24.1 | 0.00 | 0.00 | 0.00 | 55 | 1019.0 |
| 20260507085618 | 23 | 214 | 11.3 | 24.1 | 0.00 | 0.00 | 0.00 | 55 | 1019.0 |
| 20260507085518 | 23 | 229 | 12.9 | 24.1 | 0.00 | 0.00 | 0.00 | 53 | 1019.0 |
| 20260507085417 | 23 | 211 | 12.9 | 24.1 | 0.00 | 0.00 | 0.00 | 53 | 1019.0 |
| 20260507085317 | 23 | 235 | 12.9 | 24.1 | 0.00 | 0.00 | 0.00 | 49 | 1019.0 |
| 20260507085219 | 23 | 262 | 14.5 | 24.1 | 0.00 | 0.00 | 0.00 | 46 | 1019.0 |
| 20260507085111 | 23 | 227 | 14.5 | 24.1 | 0.00 | 0.00 | 0.00 | 46 | 1018.9 |
| 20260507085012 | 23 | 242 | 14.5 | 24.1 | 0.00 | 0.00 | 0.00 | 48 | 1018.9 |
| 20260507084912 | 23 | 237 | 14.5 | 24.1 | 0.00 | 0.00 | 0.00 | 49 | 1018.9 |
| 20260507084811 | 23 | 260 | 14.5 | 24.1 | 0.00 | 0.00 | 0.00 | 46 | 1018.9 |
| 20260507084712 | 23 | 238 | 14.5 | 24.1 | 0.00 | 0.00 | 0.00 | 45 | 1018.8 |
| 20260507084613 | 23 | 224 | 14.5 | 24.1 | 0.00 | 0.00 | 0.00 | 42 | 1018.8 |
| 20260507084511 | 24 | 225 | 14.5 | 24.1 | 0.00 | 0.00 | 0.00 | 41 | 1018.8 |
| 20260507084411 | 24 | 220 | 14.5 | 24.1 | 0.00 | 0.00 | 0.00 | 43 | 1018.7 |
| 20260507084313 | 24 | 222 | 14.5 | 24.1 | 0.00 | 0.00 | 0.00 | 43 | 1018.8 |
| 20260507084211 | 25 | 229 | 14.5 | 24.1 | 0.00 | 0.00 | 0.00 | 40 | 1018.7 |
| 20260507084112 | 24 | 199 | 14.5 | 24.1 | 0.00 | 0.00 | 0.00 | 40 | 1018.7 |
| 20260507084013 | 24 | 210 | 14.5 | 24.1 | 0.00 | 0.00 | 0.00 | 39 | 1018.8 |
| 20260507083908 | 24 | 230 | 14.5 | 22.5 | 0.00 | 0.00 | 0.00 | 36 | 1018.7 |
| 20260507083806 | 24 | 212 | 14.5 | 22.5 | 0.00 | 0.00 | 0.00 | 31 | 1018.8 |
| 20260507083708 | 24 | 218 | 14.5 | 22.5 | 0.00 | 0.00 | 0.00 | 31 | 1018.8 |
| 20260507083608 | 24 | 228 | 12.9 | 22.5 | 0.00 | 0.00 | 0.00 | 32 | 1018.7 |
| 20260507083507 | 24 | 239 | 14.5 | 22.5 | 0.00 | 0.00 | 0.00 | 32 | 1018.7 |
| 20260507083408 | 24 | 253 | 14.5 | 22.5 | 0.00 | 0.00 | 0.00 | 31 | 1018.7 |
| 20260507083308 | 24 | 224 | 12.9 | 22.5 | 0.00 | 0.00 | 0.00 | 31 | 1018.7 |
| 20260507083208 | 24 | 221 | 12.9 | 22.5 | 0.00 | 0.00 | 0.00 | 30 | 1018.6 |
| 20260507083109 | 24 | 199 | 12.9 | 24.1 | 0.00 | 0.00 | 0.00 | 30 | 1018.6 |
| 20260507083007 | 24 | 224 | 12.9 | 24.1 | 0.00 | 0.00 | 0.00 | 29 | 1018.6 |
| 20260507082907 | 24 | 219 | 12.9 | 24.1 | 0.00 | 0.00 | 0.00 | 30 | 1018.5 |
| 20260507082808 | 25 | 213 | 12.9 | 24.1 | 0.00 | 0.00 | 0.00 | 30 | 1018.5 |
| 20260507082707 | 25 | 226 | 12.9 | 24.1 | 0.00 | 0.00 | 0.00 | 30 | 1018.5 |
| 20260507082607 | 25 | 255 | 12.9 | 24.1 | 0.00 | 0.00 | 0.00 | 30 | 1018.4 |
| 20260507082507 | 25 | 227 | 11.3 | 24.1 | 0.00 | 0.00 | 0.00 | 31 | 1018.5 |
| 20260507082410 | 25 | 200 | 11.3 | 24.1 | 0.00 | 0.00 | 0.00 | 30 | 1018.5 |
| 20260507082309 | 25 | 235 | 11.3 | 24.1 | 0.00 | 0.00 | 0.00 | 31 | 1018.4 |
| 20260507082207 | 25 | 231 | 11.3 | 24.1 | 0.00 | 0.00 | 0.00 | 31 | 1018.4 |
| 20260507082108 | 25 | 201 | 11.3 | 22.5 | 0.00 | 0.00 | 0.00 | 32 | 1018.4 |
| 20260507082004 | 25 | 223 | 9.7 | 19.3 | 0.00 | 0.00 | 0.00 | 31 | 1018.3 |
| 20260507081903 | 25 | 216 | 9.7 | 17.7 | 0.00 | 0.00 | 0.00 | 33 | 1018.3 |
| 20260507081806 | 25 | 222 | 9.7 | 17.7 | 0.00 | 0.00 | 0.00 | 32 | 1018.3 |
| 20260507081703 | 25 | 230 | 9.7 | 17.7 | 0.00 | 0.00 | 0.00 | 31 | 1018.3 |
| 20260507081604 | 25 | 271 | 9.7 | 17.7 | 0.00 | 0.00 | 0.00 | 30 | 1018.3 |
| 20260507081505 | 25 | 247 | 9.7 | 17.7 | 0.00 | 0.00 | 0.00 | 30 | 1018.3 |
| 20260507081403 | 25 | 264 | 9.7 | 17.7 | 0.00 | 0.00 | 0.00 | 31 | 1018.3 |
| 20260507081303 | 25 | 213 | 9.7 | 17.7 | 0.00 | 0.00 | 0.00 | 32 | 1018.3 |
| 20260507081204 | 25 | 234 | 9.7 | 17.7 | 0.00 | 0.00 | 0.00 | 31 | 1018.3 |
| 20260507081103 | 25 | 221 | 9.7 | 17.7 | 0.00 | 0.00 | 0.00 | 31 | 1018.2 |
| 20260507081003 | 25 | 212 | 8.0 | 16.1 | 0.00 | 0.00 | 0.00 | 32 | 1018.2 |
| 20260507080903 | 25 | 222 | 8.0 | 16.1 | 0.00 | 0.00 | 0.00 | 32 | 1018.3 |
| 20260507080805 | 25 | 289 | 8.0 | 16.1 | 0.00 | 0.00 | 0.00 | 33 | 1018.3 |
| 20260507080704 | 25 | 255 | 8.0 | 16.1 | 0.00 | 0.00 | 0.00 | 32 | 1018.2 |
| 20260507080603 | 24 | 220 | 8.0 | 16.1 | 0.00 | 0.00 | 0.00 | 32 | 1018.3 |
| 20260507080503 | 24 | 232 | 8.0 | 16.1 | 0.00 | 0.00 | 0.00 | 32 | 1018.1 |
| 20260507080403 | 24 | 230 | 8.0 | 14.5 | 0.00 | 0.00 | 0.00 | 32 | 1018.3 |
| 20260507080304 | 24 | 218 | 8.0 | 12.9 | 0.00 | 0.00 | 0.00 | 33 | 1018.3 |
| 20260507080204 | 24 | 193 | 8.0 | 12.9 | 0.00 | 0.00 | 0.00 | 33 | 1018.3 |
| 20260507080103 | 24 | 234 | 8.0 | 12.9 | 0.00 | 0.00 | 0.00 | 34 | 1018.3 |
| 20260507080004 | 24 | 248 | 8.0 | 12.9 | 0.00 | 0.00 | 0.00 | 34 | 1018.3 |
| 20260507075905 | 24 | 273 | 6.4 | 12.9 | 0.00 | 0.00 | 0.00 | 35 | 1018.3 |
| 20260507075805 | 24 | 258 | 6.4 | 12.9 | 0.00 | 0.00 | 0.00 | 34 | 1018.3 |
| 20260507075704 | 24 | 247 | 6.4 | 12.9 | 0.00 | 0.00 | 0.00 | 34 | 1018.2 |
| 20260507075605 | 23 | 232 | 6.4 | 12.9 | 0.00 | 0.00 | 0.00 | 34 | 1018.3 |
| 20260507075504 | 23 | 214 | 6.4 | 12.9 | 0.00 | 0.00 | 0.00 | 35 | 1018.3 |
| 20260507075405 | 23 | 212 | 6.4 | 12.9 | 0.00 | 0.00 | 0.00 | 34 | 1018.3 |
| 20260507075306 | 23 | 249 | 6.4 | 12.9 | 0.00 | 0.00 | 0.00 | 34 | 1018.3 |
| 20260507075203 | 23 | 225 | 4.8 | 12.9 | 0.00 | 0.00 | 0.00 | 35 | 1018.3 |
| 20260507075105 | 23 | 208 | 4.8 | 12.9 | 0.00 | 0.00 | 0.00 | 35 | 1018.3 |
| 20260507075004 | 23 | 228 | 4.8 | 12.9 | 0.00 | 0.00 | 0.00 | 36 | 1018.3 |
| 20260507074902 | 23 | 279 | 4.8 | 12.9 | 0.00 | 0.00 | 0.00 | 37 | 1018.3 |
| 20260507074805 | 23 | 280 | 4.8 | 12.9 | 0.00 | 0.00 | 0.00 | 38 | 1018.3 |
| 20260507074704 | 23 | 271 | 4.8 | 11.3 | 0.00 | 0.00 | 0.00 | 39 | 1018.4 |
| 20260507074602 | 23 | 224 | 4.8 | 11.3 | 0.00 | 0.00 | 0.00 | 40 | 1018.3 |
| 20260507074503 | 23 | 268 | 4.8 | 11.3 | 0.00 | 0.00 | 0.00 | 41 | 1018.3 |
| 20260507074403 | 23 | 284 | 4.8 | 11.3 | 0.00 | 0.00 | 0.00 | 44 | 1018.3 |
| 20260507074304 | 23 | 233 | 4.8 | 11.3 | 0.00 | 0.00 | 0.00 | 44 | 1018.3 |
| 20260507074204 | 23 | 253 | 4.8 | 11.3 | 0.00 | 0.00 | 0.00 | 44 | 1018.3 |
| 20260507074103 | 23 | 255 | 4.8 | 11.3 | 0.00 | 0.00 | 0.00 | 44 | 1018.3 |
| 20260507074003 | 23 | 237 | 4.8 | 9.7 | 0.00 | 0.00 | 0.00 | 45 | 1018.3 |
| 20260507073908 | 23 | 312 | 4.8 | 9.7 | 0.00 | 0.00 | 0.00 | 45 | 1018.3 |
| 20260507073805 | 23 | 230 | 4.8 | 9.7 | 0.00 | 0.00 | 0.00 | 44 | 1018.3 |
| 20260507073703 | 23 | 254 | 4.8 | 11.3 | 0.00 | 0.00 | 0.00 | 44 | 1018.2 |
| 20260507073603 | 23 | 232 | 4.8 | 11.3 | 0.00 | 0.00 | 0.00 | 44 | 1018.2 |
| 20260507073503 | 23 | 241 | 4.8 | 11.3 | 0.00 | 0.00 | 0.00 | 44 | 1018.3 |
| 20260507073408 | 23 | 284 | 4.8 | 11.3 | 0.00 | 0.00 | 0.00 | 44 | 1018.2 |
| 20260507073302 | 23 | 270 | 4.8 | 11.3 | 0.00 | 0.00 | 0.00 | 44 | 1018.2 |
| 20260507073202 | 23 | 280 | 4.8 | 11.3 | 0.00 | 0.00 | 0.00 | 44 | 1018.3 |
| 20260507073102 | 23 | 205 | 4.8 | 11.3 | 0.00 | 0.00 | 0.00 | 45 | 1018.2 |
| 20260507073005 | 23 | 214 | 3.2 | 11.3 | 0.00 | 0.00 | 0.00 | 46 | 1018.2 |
| 20260507072905 | 23 | 219 | 3.2 | 11.3 | 0.00 | 0.00 | 0.00 | 47 | 1018.2 |
| 20260507072806 | 23 | 224 | 3.2 | 11.3 | 0.00 | 0.00 | 0.00 | 48 | 1018.2 |
| 20260507072706 | 23 | 276 | 3.2 | 9.7 | 0.00 | 0.00 | 0.00 | 52 | 1018.2 |
| 20260507072604 | 23 | 297 | 3.2 | 11.3 | 0.00 | 0.00 | 0.00 | 52 | 1018.2 |
| 20260507072504 | 23 | 300 | 3.2 | 11.3 | 0.00 | 0.00 | 0.00 | 52 | 1018.2 |
| 20260507072403 | 23 | 291 | 3.2 | 11.3 | 0.00 | 0.00 | 0.00 | 52 | 1018.1 |
| 20260507072306 | 23 | 276 | 3.2 | 11.3 | 0.00 | 0.00 | 0.00 | 52 | 1018.1 |
| 20260507072202 | 22 | 276 | 3.2 | 11.3 | 0.00 | 0.00 | 0.00 | 52 | 1018.1 |
| 20260507072102 | 22 | 301 | 3.2 | 11.3 | 0.00 | 0.00 | 0.00 | 52 | 1018.2 |
| 20260507072003 | 22 | 301 | 4.8 | 11.3 | 0.00 | 0.00 | 0.00 | 52 | 1018.2 |
| 20260507071902 | 22 | 301 | 4.8 | 11.3 | 0.00 | 0.00 | 0.00 | 52 | 1018.1 |
| 20260507071807 | 22 | 302 | 4.8 | 11.3 | 0.00 | 0.00 | 0.00 | 52 | 1018.2 |
| 20260507071702 | 22 | 243 | 3.2 | 11.3 | 0.00 | 0.00 | 0.00 | 52 | 1018.2 |
| 20260507071603 | 22 | 223 | 3.2 | 9.7 | 0.00 | 0.00 | 0.00 | 51 | 1018.1 |
| 20260507071504 | 22 | 271 | 3.2 | 9.7 | 0.00 | 0.00 | 0.00 | 51 | 1018.1 |
| 20260507071403 | 22 | 282 | 3.2 | 9.7 | 0.00 | 0.00 | 0.00 | 50 | 1018.2 |
| 20260507071304 | 22 | 285 | 3.2 | 9.7 | 0.00 | 0.00 | 0.00 | 50 | 1018.2 |
| 20260507071202 | 22 | 289 | 3.2 | 6.4 | 0.00 | 0.00 | 0.00 | 50 | 1018.1 |
| 20260507071056 | 22 | 241 | 3.2 | 11.3 | 0.00 | 0.00 | 0.00 | 50 | 1018.2 |
| 20260507070955 | 22 | 241 | 3.2 | 11.3 | 0.00 | 0.00 | 0.00 | 50 | 1018.1 |
| 20260507070855 | 22 | 247 | 3.2 | 11.3 | 0.00 | 0.00 | 0.00 | 50 | 1018.2 |
| 20260507070756 | 22 | 256 | 3.2 | 11.3 | 0.00 | 0.00 | 0.00 | 50 | 1018.2 |
| 20260507070656 | 22 | 256 | 3.2 | 11.3 | 0.00 | 0.00 | 0.00 | 51 | 1018.1 |
| 20260507070549 | 22 | 272 | 4.8 | 11.3 | 0.00 | 0.00 | 0.00 | 50 | 1018.1 |
| 20260507070449 | 22 | 278 | 4.8 | 11.3 | 0.00 | 0.00 | 0.00 | 49 | 1018.0 |
| 20260507070351 | 22 | 278 | 4.8 | 11.3 | 0.00 | 0.00 | 0.00 | 50 | 1018.0 |
| 20260507070250 | 22 | 264 | 4.8 | 11.3 | 0.00 | 0.00 | 0.00 | 50 | 1018.1 |
| 20260507070149 | 22 | 289 | 4.8 | 9.7 | 0.00 | 0.00 | 0.00 | 50 | 1018.1 |
| 20260507070046 | 22 | 305 | 4.8 | 11.3 | 0.00 | 0.00 | 0.00 | 50 | 1018.1 |
| 20260507065943 | 22 | 304 | 4.8 | 11.3 | 0.00 | 0.00 | 0.00 | 50 | 1018.0 |
| 20260507065849 | 22 | 251 | 4.8 | 11.3 | 0.00 | 0.00 | 0.00 | 50 | 1018.0 |
| 20260507065743 | 22 | 252 | 4.8 | 12.9 | 0.00 | 0.00 | 0.00 | 50 | 1018.0 |
| 20260507065645 | 22 | 252 | 6.4 | 12.9 | 0.00 | 0.00 | 0.00 | 50 | 1018.0 |
| 20260507065542 | 22 | 244 | 4.8 | 12.9 | 0.00 | 0.00 | 0.00 | 49 | 1018.0 |
| 20260507065441 | 22 | 273 | 4.8 | 12.9 | 0.00 | 0.00 | 0.00 | 49 | 1018.0 |
| 20260507065346 | 22 | 259 | 4.8 | 12.9 | 0.00 | 0.00 | 0.00 | 48 | 1017.9 |
| 20260507065242 | 22 | 287 | 4.8 | 12.9 | 0.00 | 0.00 | 0.00 | 48 | 1017.9 |
| 20260507065141 | 22 | 274 | 4.8 | 12.9 | 0.00 | 0.00 | 0.00 | 48 | 1017.9 |
| 20260507065043 | 22 | 282 | 4.8 | 12.9 | 0.00 | 0.00 | 0.00 | 48 | 1017.9 |
| 20260507064941 | 22 | 342 | 4.8 | 12.9 | 0.00 | 0.00 | 0.00 | 48 | 1017.9 |
| 20260507064845 | 22 | 318 | 4.8 | 12.9 | 0.00 | 0.00 | 0.00 | 48 | 1017.9 |
| 20260507064743 | 22 | 321 | 4.8 | 9.7 | 0.00 | 0.00 | 0.00 | 49 | 1017.9 |
| 20260507064640 | 22 | 291 | 4.8 | 9.7 | 0.00 | 0.00 | 0.00 | 48 | 1017.9 |
| 20260507064541 | 22 | 329 | 4.8 | 11.3 | 0.00 | 0.00 | 0.00 | 48 | 1017.8 |
| 20260507064437 | 22 | 317 | 4.8 | 11.3 | 0.00 | 0.00 | 0.00 | 48 | 1017.9 |
| 20260507064343 | 22 | 312 | 4.8 | 11.3 | 0.00 | 0.00 | 0.00 | 48 | 1017.9 |
| 20260507064235 | 22 | 309 | 6.4 | 12.9 | 0.00 | 0.00 | 0.00 | 49 | 1017.9 |
| 20260507064135 | 22 | 285 | 6.4 | 12.9 | 0.00 | 0.00 | 0.00 | 49 | 1017.9 |
| 20260507064035 | 22 | 283 | 4.8 | 12.9 | 0.00 | 0.00 | 0.00 | 49 | 1017.9 |
| 20260507063935 | 22 | 294 | 4.8 | 12.9 | 0.00 | 0.00 | 0.00 | 49 | 1017.9 |
| 20260507063839 | 22 | 278 | 4.8 | 12.9 | 0.00 | 0.00 | 0.00 | 49 | 1017.9 |
| 20260507063734 | 22 | 291 | 4.8 | 12.9 | 0.00 | 0.00 | 0.00 | 48 | 1017.9 |
| 20260507063634 | 23 | 281 | 4.8 | 12.9 | 0.00 | 0.00 | 0.00 | 46 | 1017.9 |
| 20260507063533 | 23 | 278 | 4.8 | 12.9 | 0.00 | 0.00 | 0.00 | 45 | 1017.8 |
| 20260507063434 | 23 | 293 | 4.8 | 12.9 | 0.00 | 0.00 | 0.00 | 45 | 1017.8 |
| 20260507063332 | 23 | 272 | 3.2 | 12.9 | 0.00 | 0.00 | 0.00 | 43 | 1017.8 |
| 20260507063230 | 23 | 282 | 3.2 | 6.4 | 0.00 | 0.00 | 0.00 | 41 | 1017.7 |
| 20260507063133 | 23 | 281 | 3.2 | 6.4 | 0.00 | 0.00 | 0.00 | 41 | 1017.8 |
| 20260507063031 | 23 | 282 | 3.2 | 6.4 | 0.00 | 0.00 | 0.00 | 41 | 1017.7 |
| 20260507062933 | 23 | 282 | 3.2 | 6.4 | 0.00 | 0.00 | 0.00 | 42 | 1017.7 |
| 20260507062840 | 23 | 287 | 3.2 | 6.4 | 0.00 | 0.00 | 0.00 | 42 | 1017.7 |
| 20260507062731 | 23 | 269 | 3.2 | 6.4 | 0.00 | 0.00 | 0.00 | 42 | 1017.7 |
| 20260507062632 | 23 | 267 | 3.2 | 6.4 | 0.00 | 0.00 | 0.00 | 42 | 1017.7 |
| 20260507062533 | 23 | 266 | 3.2 | 6.4 | 0.00 | 0.00 | 0.00 | 42 | 1017.7 |
| 20260507062432 | 24 | 245 | 1.6 | 6.4 | 0.00 | 0.00 | 0.00 | 41 | 1017.6 |
| 20260507062335 | 24 | 244 | 1.6 | 6.4 | 0.00 | 0.00 | 0.00 | 41 | 1017.7 |
| 20260507062232 | 24 | 276 | 1.6 | 6.4 | 0.00 | 0.00 | 0.00 | 39 | 1017.7 |
| 20260507062132 | 24 | 199 | 1.6 | 4.8 | 0.00 | 0.00 | 0.00 | 39 | 1017.6 |
| 20260507062030 | 24 | 199 | 1.6 | 4.8 | 0.00 | 0.00 | 0.00 | 39 | 1017.6 |
| 20260507061933 | 24 | 199 | 1.6 | 4.8 | 0.00 | 0.00 | 0.00 | 39 | 1017.6 |
| 20260507061832 | 24 | 199 | 1.6 | 4.8 | 0.00 | 0.00 | 0.00 | 38 | 1017.6 |
| 20260507061733 | 23 | 113 | 1.6 | 4.8 | 0.00 | 0.00 | 0.00 | 37 | 1017.6 |
| 20260507061630 | 23 | 105 | 1.6 | 4.8 | 0.00 | 0.00 | 0.00 | 37 | 1017.6 |
| 20260507061529 | 23 | 105 | 1.6 | 4.8 | 0.00 | 0.00 | 0.00 | 37 | 1017.7 |
| 20260507061430 | 23 | 105 | 1.6 | 4.8 | 0.00 | 0.00 | 0.00 | 37 | 1017.7 |
| 20260507061329 | 23 | 105 | 1.6 | 4.8 | 0.00 | 0.00 | 0.00 | 37 | 1017.7 |
| 20260507061227 | 23 | 105 | 1.6 | 4.8 | 0.00 | 0.00 | 0.00 | 36 | 1017.7 |
| 20260507061124 | 23 | 105 | 1.6 | 4.8 | 0.00 | 0.00 | 0.00 | 37 | 1017.7 |
| 20260507061024 | 23 | 103 | 1.6 | 4.8 | 0.00 | 0.00 | 0.00 | 37 | 1017.8 |
| 20260507060923 | 23 | 103 | 1.6 | 4.8 | 0.00 | 0.00 | 0.00 | 37 | 1017.7 |
| 20260507060827 | 23 | 102 | 1.6 | 4.8 | 0.00 | 0.00 | 0.00 | 38 | 1017.7 |
| 20260507060720 | 23 | 102 | 1.6 | 4.8 | 0.00 | 0.00 | 0.00 | 38 | 1017.7 |
| 20260507060616 | 23 | 102 | 1.6 | 4.8 | 0.00 | 0.00 | 0.00 | 38 | 1017.6 |
| 20260507060513 | 22 | 102 | 1.6 | 4.8 | 0.00 | 0.00 | 0.00 | 38 | 1017.6 |
| 20260507060413 | 22 | 102 | 1.6 | 4.8 | 0.00 | 0.00 | 0.00 | 39 | 1017.7 |
| 20260507060313 | 22 | 102 | 1.6 | 4.8 | 0.00 | 0.00 | 0.00 | 40 | 1017.7 |
| 20260507060216 | 22 | 97 | 1.6 | 4.8 | 0.00 | 0.00 | 0.00 | 41 | 1017.7 |
| 20260507060113 | 22 | 98 | 0.0 | 4.8 | 0.00 | 0.00 | 0.00 | 42 | 1017.7 |
| 20260507060010 | 22 | 98 | 1.6 | 4.8 | 0.00 | 0.00 | 0.00 | 42 | 1017.8 |
| 20260507055913 | 22 | 98 | 1.6 | 4.8 | 0.00 | 0.00 | 0.00 | 42 | 1017.7 |
| 20260507055810 | 22 | 98 | 1.6 | 4.8 | 0.00 | 0.00 | 0.00 | 41 | 1017.8 |
| 20260507055708 | 22 | 97 | 1.6 | 4.8 | 0.00 | 0.00 | 0.00 | 41 | 1017.7 |
| 20260507055605 | 22 | 95 | 1.6 | 4.8 | 0.00 | 0.00 | 0.00 | 41 | 1017.7 |
| 20260507055505 | 22 | 95 | 1.6 | 4.8 | 0.00 | 0.00 | 0.00 | 42 | 1017.7 |
| 20260507055404 | 21 | 95 | 1.6 | 4.8 | 0.00 | 0.00 | 0.00 | 42 | 1017.7 |
| 20260507055306 | 21 | 95 | 1.6 | 6.4 | 0.00 | 0.00 | 0.00 | 42 | 1017.7 |
| 20260507055203 | 21 | 93 | 3.2 | 8.0 | 0.00 | 0.00 | 0.00 | 42 | 1017.8 |
| 20260507055103 | 21 | 94 | 3.2 | 8.0 | 0.00 | 0.00 | 0.00 | 41 | 1017.7 |
| 20260507055003 | 21 | 93 | 3.2 | 8.0 | 0.00 | 0.00 | 0.00 | 42 | 1017.7 |
| 20260507054904 | 21 | 92 | 3.2 | 8.0 | 0.00 | 0.00 | 0.00 | 43 | 1017.7 |
| 20260507054807 | 21 | 89 | 3.2 | 9.7 | 0.00 | 0.00 | 0.00 | 44 | 1017.7 |
| 20260507054703 | 21 | 89 | 3.2 | 9.7 | 0.00 | 0.00 | 0.00 | 47 | 1017.7 |
| 20260507054602 | 21 | 83 | 3.2 | 9.7 | 0.00 | 0.00 | 0.00 | 46 | 1017.7 |
| 20260507054504 | 21 | 83 | 3.2 | 9.7 | 0.00 | 0.00 | 0.00 | 46 | 1017.7 |
| 20260507054403 | 21 | 83 | 3.2 | 9.7 | 0.00 | 0.00 | 0.00 | 46 | 1017.8 |
| 20260507054304 | 21 | 83 | 3.2 | 9.7 | 0.00 | 0.00 | 0.00 | 46 | 1017.7 |
| 20260507054203 | 20 | 85 | 3.2 | 9.7 | 0.00 | 0.00 | 0.00 | 47 | 1017.7 |
| 20260507054103 | 20 | 85 | 3.2 | 9.7 | 0.00 | 0.00 | 0.00 | 48 | 1017.7 |
| 20260507054004 | 20 | 85 | 3.2 | 9.7 | 0.00 | 0.00 | 0.00 | 48 | 1017.8 |
| 20260507053904 | 20 | 85 | 3.2 | 9.7 | 0.00 | 0.00 | 0.00 | 48 | 1017.8 |
| 20260507053806 | 20 | 85 | 4.8 | 9.7 | 0.00 | 0.00 | 0.00 | 49 | 1017.8 |
| 20260507053704 | 20 | 79 | 4.8 | 9.7 | 0.00 | 0.00 | 0.00 | 49 | 1017.7 |
| 20260507053604 | 20 | 79 | 4.8 | 11.3 | 0.00 | 0.00 | 0.00 | 50 | 1017.7 |
| 20260507053503 | 20 | 79 | 4.8 | 11.3 | 0.00 | 0.00 | 0.00 | 51 | 1017.8 |
| 20260507053403 | 20 | 79 | 4.8 | 11.3 | 0.00 | 0.00 | 0.00 | 50 | 1017.8 |
| 20260507053302 | 20 | 79 | 6.4 | 11.3 | 0.00 | 0.00 | 0.00 | 50 | 1017.7 |
| 20260507053204 | 20 | 81 | 6.4 | 11.3 | 0.00 | 0.00 | 0.00 | 51 | 1017.8 |
| 20260507053102 | 20 | 86 | 6.4 | 11.3 | 0.00 | 0.00 | 0.00 | 51 | 1017.7 |
| 20260507053005 | 20 | 85 | 6.4 | 12.9 | 0.00 | 0.00 | 0.00 | 51 | 1017.8 |
| 20260507052902 | 20 | 81 | 8.0 | 12.9 | 0.00 | 0.00 | 0.00 | 52 | 1017.8 |
| 20260507052805 | 19 | 83 | 8.0 | 12.9 | 0.00 | 0.00 | 0.00 | 52 | 1017.8 |
| 20260507052702 | 19 | 76 | 8.0 | 12.9 | 0.00 | 0.00 | 0.00 | 52 | 1017.8 |
| 20260507052602 | 19 | 72 | 8.0 | 12.9 | 0.00 | 0.00 | 0.00 | 53 | 1017.8 |
| 20260507052502 | 19 | 85 | 8.0 | 12.9 | 0.00 | 0.00 | 0.00 | 53 | 1017.8 |
| 20260507052404 | 19 | 77 | 9.7 | 12.9 | 0.00 | 0.00 | 0.00 | 54 | 1017.8 |
| 20260507052308 | 19 | 77 | 8.0 | 12.9 | 0.00 | 0.00 | 0.00 | 54 | 1017.9 |
| 20260507052204 | 19 | 72 | 8.0 | 12.9 | 0.00 | 0.00 | 0.00 | 54 | 1017.8 |
| 20260507052104 | 19 | 72 | 8.0 | 12.9 | 0.00 | 0.00 | 0.00 | 55 | 1017.8 |
| 20260507052004 | 18 | 83 | 8.0 | 11.3 | 0.00 | 0.00 | 0.00 | 55 | 1017.8 |
| 20260507051902 | 18 | 67 | 8.0 | 11.3 | 0.00 | 0.00 | 0.00 | 56 | 1017.8 |
| 20260507051806 | 18 | 70 | 6.4 | 11.3 | 0.00 | 0.00 | 0.00 | 56 | 1017.8 |
| 20260507051702 | 18 | 81 | 6.4 | 11.3 | 0.00 | 0.00 | 0.00 | 57 | 1017.8 |
| 20260507051603 | 18 | 79 | 6.4 | 11.3 | 0.00 | 0.00 | 0.00 | 57 | 1017.8 |
| 20260507051502 | 18 | 76 | 6.4 | 11.3 | 0.00 | 0.00 | 0.00 | 58 | 1017.8 |
| 20260507051404 | 18 | 76 | 6.4 | 9.7 | 0.00 | 0.00 | 0.00 | 58 | 1017.8 |
| 20260507051305 | 18 | 76 | 6.4 | 9.7 | 0.00 | 0.00 | 0.00 | 58 | 1017.8 |
| 20260507051204 | 18 | 77 | 6.4 | 11.3 | 0.00 | 0.00 | 0.00 | 58 | 1017.8 |
| 20260507051104 | 18 | 79 | 6.4 | 11.3 | 0.00 | 0.00 | 0.00 | 58 | 1017.8 |
| 20260507051004 | 18 | 76 | 6.4 | 11.3 | 0.00 | 0.00 | 0.00 | 59 | 1017.8 |
| 20260507050902 | 18 | 70 | 6.4 | 11.3 | 0.00 | 0.00 | 0.00 | 59 | 1017.8 |
| 20260507050807 | 18 | 75 | 6.4 | 11.3 | 0.00 | 0.00 | 0.00 | 59 | 1017.8 |
| 20260507050702 | 17 | 76 | 6.4 | 11.3 | 0.00 | 0.00 | 0.00 | 59 | 1017.7 |
| 20260507050604 | 17 | 76 | 6.4 | 11.3 | 0.00 | 0.00 | 0.00 | 60 | 1017.8 |
| 20260507050506 | 17 | 77 | 6.4 | 11.3 | 0.00 | 0.00 | 0.00 | 59 | 1017.8 |
| 20260507050405 | 17 | 77 | 6.4 | 11.3 | 0.00 | 0.00 | 0.00 | 60 | 1017.8 |
| 20260507050303 | 17 | 72 | 4.8 | 11.3 | 0.00 | 0.00 | 0.00 | 60 | 1017.9 |
| 20260507050203 | 17 | 79 | 4.8 | 11.3 | 0.00 | 0.00 | 0.00 | 60 | 1017.8 |
| 20260507050104 | 17 | 73 | 4.8 | 11.3 | 0.00 | 0.00 | 0.00 | 60 | 1017.9 |
| 20260507050004 | 17 | 78 | 4.8 | 11.3 | 0.00 | 0.00 | 0.00 | 60 | 1017.9 |
| 20260507045903 | 17 | 64 | 6.4 | 11.3 | 0.00 | 0.00 | 0.00 | 60 | 1017.9 |
| 20260507045805 | 17 | 64 | 6.4 | 12.9 | 0.00 | 0.00 | 0.00 | 60 | 1017.9 |
| 20260507045704 | 17 | 63 | 6.4 | 12.9 | 0.00 | 0.00 | 0.00 | 61 | 1017.9 |
| 20260507045604 | 17 | 64 | 8.0 | 12.9 | 0.00 | 0.00 | 0.00 | 61 | 1017.9 |
| 20260507045503 | 17 | 74 | 8.0 | 12.9 | 0.00 | 0.00 | 0.00 | 61 | 1017.9 |
| 20260507045404 | 17 | 76 | 8.0 | 12.9 | 0.00 | 0.00 | 0.00 | 61 | 1017.9 |
| 20260507045306 | 17 | 75 | 8.0 | 12.9 | 0.00 | 0.00 | 0.00 | 61 | 1017.9 |
| 20260507045203 | 17 | 72 | 8.0 | 12.9 | 0.00 | 0.00 | 0.00 | 62 | 1017.8 |
| 20260507045104 | 17 | 72 | 8.0 | 12.9 | 0.00 | 0.00 | 0.00 | 62 | 1017.8 |
| 20260507045002 | 17 | 67 | 8.0 | 12.9 | 0.00 | 0.00 | 0.00 | 62 | 1017.8 |
| 20260507044903 | 17 | 79 | 8.0 | 12.9 | 0.00 | 0.00 | 0.00 | 62 | 1017.8 |
| 20260507044806 | 17 | 78 | 6.4 | 12.9 | 0.00 | 0.00 | 0.00 | 63 | 1017.8 |
| 20260507044705 | 17 | 76 | 6.4 | 12.9 | 0.00 | 0.00 | 0.00 | 63 | 1017.7 |
| 20260507044603 | 17 | 73 | 6.4 | 11.3 | 0.00 | 0.00 | 0.00 | 63 | 1017.8 |
| 20260507044503 | 17 | 80 | 6.4 | 11.3 | 0.00 | 0.00 | 0.00 | 63 | 1017.8 |
| 20260507044403 | 17 | 81 | 6.4 | 11.3 | 0.00 | 0.00 | 0.00 | 63 | 1017.8 |
| 20260507044302 | 17 | 76 | 6.4 | 11.3 | 0.00 | 0.00 | 0.00 | 63 | 1017.7 |
| 20260507044203 | 17 | 80 | 6.4 | 11.3 | 0.00 | 0.00 | 0.00 | 63 | 1017.7 |
| 20260507044102 | 17 | 78 | 6.4 | 11.3 | 0.00 | 0.00 | 0.00 | 63 | 1017.7 |
| 20260507044004 | 17 | 79 | 6.4 | 11.3 | 0.00 | 0.00 | 0.00 | 63 | 1017.7 |
| 20260507043904 | 17 | 76 | 6.4 | 12.9 | 0.00 | 0.00 | 0.00 | 63 | 1017.7 |
| 20260507043806 | 17 | 87 | 8.0 | 12.9 | 0.00 | 0.00 | 0.00 | 63 | 1017.7 |
| 20260507043702 | 17 | 79 | 8.0 | 12.9 | 0.00 | 0.00 | 0.00 | 63 | 1017.7 |
| 20260507043603 | 17 | 77 | 6.4 | 12.9 | 0.00 | 0.00 | 0.00 | 63 | 1017.7 |
| 20260507043503 | 17 | 79 | 8.0 | 12.9 | 0.00 | 0.00 | 0.00 | 63 | 1017.7 |
| 20260507043403 | 17 | 81 | 8.0 | 12.9 | 0.00 | 0.00 | 0.00 | 63 | 1017.7 |
| 20260507043302 | 17 | 81 | 8.0 | 12.9 | 0.00 | 0.00 | 0.00 | 63 | 1017.7 |
| 20260507043207 | 17 | 76 | 8.0 | 12.9 | 0.00 | 0.00 | 0.00 | 63 | 1017.7 |
| 20260507043104 | 17 | 87 | 8.0 | 12.9 | 0.00 | 0.00 | 0.00 | 63 | 1017.7 |
| 20260507043006 | 17 | 77 | 8.0 | 12.9 | 0.00 | 0.00 | 0.00 | 63 | 1017.7 |
| 20260507042904 | 17 | 85 | 8.0 | 12.9 | 0.00 | 0.00 | 0.00 | 63 | 1017.7 |
| 20260507042807 | 17 | 83 | 8.0 | 12.9 | 0.00 | 0.00 | 0.00 | 63 | 1017.8 |
| 20260507042704 | 17 | 81 | 9.7 | 12.9 | 0.00 | 0.00 | 0.00 | 63 | 1017.7 |
| 20260507042602 | 17 | 79 | 9.7 | 12.9 | 0.00 | 0.00 | 0.00 | 63 | 1017.8 |
| 20260507042504 | 17 | 83 | 9.7 | 12.9 | 0.00 | 0.00 | 0.00 | 63 | 1017.7 |
| 20260507042403 | 17 | 72 | 9.7 | 12.9 | 0.00 | 0.00 | 0.00 | 63 | 1017.8 |
| 20260507042307 | 17 | 79 | 8.0 | 12.9 | 0.00 | 0.00 | 0.00 | 63 | 1017.7 |
| 20260507042204 | 17 | 83 | 9.7 | 12.9 | 0.00 | 0.00 | 0.00 | 64 | 1017.8 |
| 20260507042105 | 17 | 76 | 9.7 | 12.9 | 0.00 | 0.00 | 0.00 | 64 | 1017.7 |
| 20260507042004 | 17 | 72 | 9.7 | 12.9 | 0.00 | 0.00 | 0.00 | 64 | 1017.7 |
| 20260507041904 | 17 | 74 | 8.0 | 12.9 | 0.00 | 0.00 | 0.00 | 64 | 1017.6 |
| 20260507041805 | 17 | 93 | 8.0 | 12.9 | 0.00 | 0.00 | 0.00 | 64 | 1017.6 |
| 20260507041704 | 17 | 78 | 8.0 | 12.9 | 0.00 | 0.00 | 0.00 | 64 | 1017.5 |
| 20260507041602 | 17 | 106 | 8.0 | 12.9 | 0.00 | 0.00 | 0.00 | 64 | 1017.6 |
| 20260507041504 | 17 | 78 | 8.0 | 12.9 | 0.00 | 0.00 | 0.00 | 64 | 1017.5 |
| 20260507041403 | 17 | 79 | 8.0 | 12.9 | 0.00 | 0.00 | 0.00 | 64 | 1017.6 |
| 20260507041306 | 17 | 83 | 8.0 | 12.9 | 0.00 | 0.00 | 0.00 | 65 | 1017.5 |
| 20260507041204 | 16 | 79 | 8.0 | 14.5 | 0.00 | 0.00 | 0.00 | 65 | 1017.6 |
| 20260507041104 | 16 | 76 | 8.0 | 14.5 | 0.00 | 0.00 | 0.00 | 65 | 1017.6 |
| 20260507041004 | 16 | 81 | 8.0 | 14.5 | 0.00 | 0.00 | 0.00 | 65 | 1017.6 |
| 20260507040902 | 16 | 82 | 8.0 | 14.5 | 0.00 | 0.00 | 0.00 | 65 | 1017.6 |
| 20260507040806 | 16 | 82 | 8.0 | 14.5 | 0.00 | 0.00 | 0.00 | 65 | 1017.6 |
| 20260507040704 | 16 | 90 | 8.0 | 14.5 | 0.00 | 0.00 | 0.00 | 66 | 1017.6 |
| 20260507040604 | 16 | 84 | 8.0 | 14.5 | 0.00 | 0.00 | 0.00 | 66 | 1017.6 |
| 20260507040504 | 16 | 83 | 8.0 | 14.5 | 0.00 | 0.00 | 0.00 | 66 | 1017.6 |
| 20260507040403 | 16 | 76 | 8.0 | 14.5 | 0.00 | 0.00 | 0.00 | 66 | 1017.6 |
| 20260507040303 | 16 | 76 | 8.0 | 14.5 | 0.00 | 0.00 | 0.00 | 66 | 1017.6 |
| 20260507040203 | 16 | 83 | 8.0 | 14.5 | 0.00 | 0.00 | 0.00 | 66 | 1017.6 |
| 20260507040005 | 16 | 71 | 8.0 | 12.9 | 0.00 | 0.00 | 0.00 | 67 | 1017.6 |
| 20260507035904 | 16 | 90 | 8.0 | 12.9 | 0.00 | 0.00 | 0.00 | 67 | 1017.7 |
| 20260507035806 | 16 | 94 | 8.0 | 12.9 | 0.00 | 0.00 | 0.00 | 67 | 1017.6 |
| 20260507035703 | 16 | 80 | 8.0 | 12.9 | 0.00 | 0.00 | 0.00 | 67 | 1017.7 |
| 20260507035605 | 16 | 93 | 8.0 | 12.9 | 0.00 | 0.00 | 0.00 | 67 | 1017.7 |
| 20260507035504 | 16 | 78 | 8.0 | 12.9 | 0.00 | 0.00 | 0.00 | 67 | 1017.7 |
| 20260507035404 | 16 | 74 | 8.0 | 12.9 | 0.00 | 0.00 | 0.00 | 67 | 1017.6 |
| 20260507035306 | 16 | 80 | 8.0 | 12.9 | 0.00 | 0.00 | 0.00 | 68 | 1017.6 |
| 20260507035203 | 16 | 79 | 8.0 | 12.9 | 0.00 | 0.00 | 0.00 | 68 | 1017.5 |
| 20260507035101 | 16 | 83 | 8.0 | 12.9 | 0.00 | 0.00 | 0.00 | 68 | 1017.5 |
| 20260507035002 | 16 | 82 | 8.0 | 12.9 | 0.00 | 0.00 | 0.00 | 68 | 1017.6 |
| 20260507034902 | 16 | 74 | 8.0 | 12.9 | 0.00 | 0.00 | 0.00 | 68 | 1017.5 |
| 20260507034806 | 16 | 72 | 6.4 | 12.9 | 0.00 | 0.00 | 0.00 | 69 | 1017.5 |
| 20260507034704 | 16 | 74 | 6.4 | 12.9 | 0.00 | 0.00 | 0.00 | 69 | 1017.5 |
| 20260507034605 | 16 | 76 | 6.4 | 12.9 | 0.00 | 0.00 | 0.00 | 69 | 1017.4 |
| 20260507034502 | 16 | 77 | 6.4 | 11.3 | 0.00 | 0.00 | 0.00 | 69 | 1017.5 |
| 20260507034403 | 16 | 82 | 6.4 | 11.3 | 0.00 | 0.00 | 0.00 | 69 | 1017.5 |
| 20260507034304 | 16 | 78 | 6.4 | 11.3 | 0.00 | 0.00 | 0.00 | 69 | 1017.4 |
| 20260507034204 | 16 | 81 | 6.4 | 11.3 | 0.00 | 0.00 | 0.00 | 69 | 1017.4 |
| 20260507034109 | 16 | 81 | 6.4 | 11.3 | 0.00 | 0.00 | 0.00 | 69 | 1017.4 |
| 20260507034003 | 16 | 75 | 6.4 | 11.3 | 0.00 | 0.00 | 0.00 | 69 | 1017.4 |
| 20260507033906 | 16 | 81 | 4.8 | 11.3 | 0.00 | 0.00 | 0.00 | 69 | 1017.4 |
| 20260507033807 | 16 | 77 | 4.8 | 11.3 | 0.00 | 0.00 | 0.00 | 70 | 1017.3 |
| 20260507033703 | 16 | 80 | 4.8 | 11.3 | 0.00 | 0.00 | 0.00 | 70 | 1017.3 |
| 20260507033604 | 16 | 74 | 4.8 | 8.0 | 0.00 | 0.00 | 0.00 | 70 | 1017.4 |
| 20260507033504 | 16 | 80 | 4.8 | 8.0 | 0.00 | 0.00 | 0.00 | 70 | 1017.3 |
| 20260507033403 | 16 | 79 | 4.8 | 8.0 | 0.00 | 0.00 | 0.00 | 70 | 1017.4 |
| 20260507033305 | 16 | 81 | 4.8 | 8.0 | 0.00 | 0.00 | 0.00 | 70 | 1017.4 |
| 20260507033204 | 16 | 80 | 4.8 | 8.0 | 0.00 | 0.00 | 0.00 | 70 | 1017.4 |
| 20260507033107 | 16 | 80 | 4.8 | 8.0 | 0.00 | 0.00 | 0.00 | 70 | 1017.4 |
| 20260507032903 | 16 | 82 | 4.8 | 8.0 | 0.00 | 0.00 | 0.00 | 70 | 1017.3 |
| 20260507032805 | 16 | 85 | 4.8 | 8.0 | 0.00 | 0.00 | 0.00 | 69 | 1017.3 |
| 20260507032704 | 16 | 77 | 3.2 | 8.0 | 0.00 | 0.00 | 0.00 | 69 | 1017.3 |
| 20260507032603 | 16 | 83 | 3.2 | 8.0 | 0.00 | 0.00 | 0.00 | 69 | 1017.2 |
| 20260507032502 | 16 | 79 | 3.2 | 8.0 | 0.00 | 0.00 | 0.00 | 69 | 1017.2 |
| 20260507032403 | 16 | 76 | 3.2 | 8.0 | 0.00 | 0.00 | 0.00 | 69 | 1017.2 |
| 20260507032305 | 16 | 79 | 3.2 | 6.4 | 0.00 | 0.00 | 0.00 | 69 | 1017.2 |
| 20260507032204 | 16 | 81 | 3.2 | 6.4 | 0.00 | 0.00 | 0.00 | 69 | 1017.1 |
| 20260507032104 | 16 | 79 | 3.2 | 6.4 | 0.00 | 0.00 | 0.00 | 69 | 1017.2 |
| 20260507032004 | 16 | 76 | 3.2 | 6.4 | 0.00 | 0.00 | 0.00 | 69 | 1017.1 |
| 20260507031904 | 16 | 76 | 3.2 | 6.4 | 0.00 | 0.00 | 0.00 | 69 | 1017.1 |
| 20260507031806 | 16 | 76 | 3.2 | 6.4 | 0.00 | 0.00 | 0.00 | 69 | 1017.1 |
| 20260507031702 | 16 | 75 | 3.2 | 6.4 | 0.00 | 0.00 | 0.00 | 69 | 1017.1 |
| 20260507031604 | 16 | 75 | 3.2 | 6.4 | 0.00 | 0.00 | 0.00 | 69 | 1017.1 |
| 20260507031502 | 16 | 75 | 3.2 | 6.4 | 0.00 | 0.00 | 0.00 | 69 | 1017.1 |
| 20260507031404 | 16 | 75 | 3.2 | 6.4 | 0.00 | 0.00 | 0.00 | 69 | 1017.1 |
| 20260507031304 | 16 | 76 | 3.2 | 6.4 | 0.00 | 0.00 | 0.00 | 69 | 1017.1 |
| 20260507031205 | 16 | 77 | 3.2 | 6.4 | 0.00 | 0.00 | 0.00 | 69 | 1017.1 |
| 20260507031118 | 16 | 79 | 1.6 | 6.4 | 0.00 | 0.00 | 0.00 | 69 | 1017.0 |
| 20260507031003 | 16 | 78 | 1.6 | 6.4 | 0.00 | 0.00 | 0.00 | 69 | 1017.1 |
| 20260507030904 | 16 | 76 | 3.2 | 6.4 | 0.00 | 0.00 | 0.00 | 69 | 1017.0 |
| 20260507030804 | 16 | 75 | 3.2 | 8.0 | 0.00 | 0.00 | 0.00 | 69 | 1017.0 |
| 20260507030703 | 16 | 75 | 3.2 | 8.0 | 0.00 | 0.00 | 0.00 | 69 | 1016.9 |
| 20260507030602 | 16 | 72 | 3.2 | 8.0 | 0.00 | 0.00 | 0.00 | 69 | 1016.9 |
| 20260507030504 | 16 | 74 | 3.2 | 8.0 | 0.00 | 0.00 | 0.00 | 69 | 1016.9 |
| 20260507030404 | 16 | 74 | 4.8 | 8.0 | 0.00 | 0.00 | 0.00 | 69 | 1016.9 |
| 20260507030304 | 16 | 74 | 4.8 | 8.0 | 0.00 | 0.00 | 0.00 | 69 | 1016.8 |
| 20260507030203 | 16 | 89 | 4.8 | 8.0 | 0.00 | 0.00 | 0.00 | 69 | 1016.9 |
| 20260507030106 | 16 | 115 | 4.8 | 8.0 | 0.00 | 0.00 | 0.00 | 69 | 1016.8 |
| 20260507030005 | 16 | 114 | 4.8 | 8.0 | 0.00 | 0.00 | 0.00 | 68 | 1016.8 |
| 20260507025903 | 16 | 79 | 4.8 | 8.0 | 0.00 | 0.00 | 0.00 | 68 | 1016.8 |
| 20260507025805 | 16 | 79 | 4.8 | 8.0 | 0.00 | 0.00 | 0.00 | 69 | 1016.8 |
| 20260507025704 | 16 | 79 | 4.8 | 8.0 | 0.00 | 0.00 | 0.00 | 69 | 1016.8 |
| 20260507025603 | 16 | 75 | 4.8 | 6.4 | 0.00 | 0.00 | 0.00 | 69 | 1016.7 |
| 20260507025503 | 16 | 77 | 4.8 | 6.4 | 0.00 | 0.00 | 0.00 | 70 | 1016.7 |
| 20260507025402 | 16 | 73 | 4.8 | 6.4 | 0.00 | 0.00 | 0.00 | 70 | 1016.7 |
| 20260507025306 | 16 | 79 | 4.8 | 6.4 | 0.00 | 0.00 | 0.00 | 70 | 1016.7 |
| 20260507025205 | 16 | 80 | 3.2 | 6.4 | 0.00 | 0.00 | 0.00 | 71 | 1016.6 |
| 20260507025103 | 16 | 80 | 3.2 | 6.4 | 0.00 | 0.00 | 0.00 | 71 | 1016.6 |
| 20260507025003 | 16 | 79 | 3.2 | 6.4 | 0.00 | 0.00 | 0.00 | 71 | 1016.5 |
| 20260507024903 | 16 | 77 | 3.2 | 6.4 | 0.00 | 0.00 | 0.00 | 71 | 1016.5 |
| 20260507024807 | 16 | 78 | 3.2 | 6.4 | 0.00 | 0.00 | 0.00 | 71 | 1016.5 |
| 20260507024703 | 16 | 80 | 3.2 | 6.4 | 0.00 | 0.00 | 0.00 | 71 | 1016.5 |
| 20260507024604 | 16 | 79 | 3.2 | 6.4 | 0.00 | 0.00 | 0.00 | 71 | 1016.5 |
| 20260507024504 | 16 | 79 | 3.2 | 6.4 | 0.00 | 0.00 | 0.00 | 71 | 1016.5 |
| 20260507024404 | 16 | 81 | 3.2 | 6.4 | 0.00 | 0.00 | 0.00 | 71 | 1016.5 |
| 20260507024303 | 16 | 83 | 3.2 | 6.4 | 0.00 | 0.00 | 0.00 | 70 | 1016.5 |
| 20260507024205 | 16 | 83 | 3.2 | 6.4 | 0.00 | 0.00 | 0.00 | 70 | 1016.5 |
| 20260507024102 | 16 | 107 | 3.2 | 6.4 | 0.00 | 0.00 | 0.00 | 70 | 1016.5 |
| 20260507024004 | 16 | 107 | 3.2 | 6.4 | 0.00 | 0.00 | 0.00 | 70 | 1016.4 |
| 20260507023903 | 16 | 107 | 3.2 | 8.0 | 0.00 | 0.00 | 0.00 | 70 | 1016.4 |
| 20260507023805 | 16 | 107 | 4.8 | 8.0 | 0.00 | 0.00 | 0.00 | 70 | 1016.3 |
| 20260507023704 | 16 | 128 | 4.8 | 8.0 | 0.00 | 0.00 | 0.00 | 69 | 1016.4 |
| 20260507023604 | 16 | 132 | 4.8 | 8.0 | 0.00 | 0.00 | 0.00 | 69 | 1016.3 |
| 20260507023503 | 16 | 72 | 4.8 | 8.0 | 0.00 | 0.00 | 0.00 | 68 | 1016.3 |
| 20260507023401 | 16 | 72 | 4.8 | 8.0 | 0.00 | 0.00 | 0.00 | 67 | 1016.2 |
| 20260507023304 | 16 | 72 | 4.8 | 8.0 | 0.00 | 0.00 | 0.00 | 66 | 1016.4 |
| 20260507023203 | 16 | 74 | 4.8 | 8.0 | 0.00 | 0.00 | 0.00 | 66 | 1016.4 |
| 20260507023103 | 16 | 77 | 4.8 | 8.0 | 0.00 | 0.00 | 0.00 | 65 | 1016.5 |
| 20260507023004 | 16 | 77 | 4.8 | 8.0 | 0.00 | 0.00 | 0.00 | 63 | 1016.5 |
| 20260507022904 | 16 | 77 | 4.8 | 8.0 | 0.00 | 0.00 | 0.00 | 62 | 1016.5 |
| 20260507022806 | 16 | 74 | 4.8 | 8.0 | 0.00 | 0.00 | 0.00 | 61 | 1016.5 |
| 20260507022703 | 16 | 74 | 4.8 | 6.4 | 0.00 | 0.00 | 0.00 | 61 | 1016.5 |
| 20260507022604 | 16 | 74 | 3.2 | 6.4 | 0.00 | 0.00 | 0.00 | 61 | 1016.5 |
| 20260507022503 | 16 | 70 | 3.2 | 6.4 | 0.00 | 0.00 | 0.00 | 60 | 1016.5 |
| 20260507022402 | 16 | 70 | 3.2 | 6.4 | 0.00 | 0.00 | 0.00 | 61 | 1016.4 |
| 20260507022306 | 16 | 70 | 3.2 | 6.4 | 0.00 | 0.00 | 0.00 | 61 | 1016.4 |
| 20260507022203 | 16 | 70 | 3.2 | 6.4 | 0.00 | 0.00 | 0.00 | 60 | 1016.4 |
| 20260507022103 | 16 | 70 | 3.2 | 6.4 | 0.00 | 0.00 | 0.00 | 60 | 1016.3 |
| 20260507022005 | 16 | 69 | 3.2 | 6.4 | 0.00 | 0.00 | 0.00 | 60 | 1016.3 |
| 20260507021902 | 16 | 66 | 3.2 | 4.8 | 0.00 | 0.00 | 0.00 | 59 | 1016.3 |
| 20260507021806 | 16 | 66 | 1.6 | 4.8 | 0.00 | 0.00 | 0.00 | 58 | 1016.2 |
| 20260507021704 | 16 | 66 | 1.6 | 4.8 | 0.00 | 0.00 | 0.00 | 58 | 1016.1 |
| 20260507021604 | 16 | 66 | 1.6 | 4.8 | 0.00 | 0.00 | 0.00 | 56 | 1016.2 |
| 20260507021508 | 16 | 66 | 1.6 | 4.8 | 0.00 | 0.00 | 0.00 | 56 | 1016.2 |
| 20260507021404 | 16 | 66 | 3.2 | 4.8 | 0.00 | 0.00 | 0.00 | 56 | 1016.1 |
| 20260507021303 | 16 | 66 | 3.2 | 6.4 | 0.00 | 0.00 | 0.00 | 56 | 1016.1 |
| 20260507021204 | 16 | 66 | 3.2 | 12.9 | 0.00 | 0.00 | 0.00 | 56 | 1016.1 |
| 20260507021104 | 16 | 66 | 4.8 | 12.9 | 0.00 | 0.00 | 0.00 | 56 | 1016.0 |
| 20260507021006 | 16 | 66 | 4.8 | 12.9 | 0.00 | 0.00 | 0.00 | 56 | 1016.0 |
| 20260507020903 | 16 | 66 | 4.8 | 12.9 | 0.00 | 0.00 | 0.00 | 56 | 1016.1 |
| 20260507020806 | 16 | 70 | 4.8 | 12.9 | 0.00 | 0.00 | 0.00 | 55 | 1016.0 |
| 20260507020703 | 16 | 70 | 6.4 | 12.9 | 0.00 | 0.00 | 0.00 | 53 | 1016.0 |
| 20260507020604 | 16 | 70 | 8.0 | 14.5 | 0.00 | 0.00 | 0.00 | 53 | 1015.9 |
| 20260507020504 | 16 | 70 | 8.0 | 16.1 | 0.00 | 0.00 | 0.00 | 52 | 1015.9 |
| 20260507020404 | 16 | 77 | 9.7 | 17.7 | 0.00 | 0.00 | 0.00 | 52 | 1016.0 |
| 20260507020303 | 16 | 65 | 9.7 | 17.7 | 0.00 | 0.00 | 0.00 | 51 | 1015.9 |
| 20260507020203 | 16 | 72 | 11.3 | 17.7 | 0.00 | 0.00 | 0.00 | 51 | 1015.9 |
| 20260507020005 | 16 | 73 | 11.3 | 17.7 | 0.00 | 0.00 | 0.00 | 52 | 1015.9 |
| 20260507015904 | 16 | 85 | 12.9 | 17.7 | 0.00 | 0.00 | 0.00 | 52 | 1015.8 |
| 20260507015805 | 16 | 76 | 12.9 | 17.7 | 0.00 | 0.00 | 0.00 | 53 | 1015.9 |
| 20260507015704 | 16 | 72 | 14.5 | 17.7 | 0.00 | 0.00 | 0.00 | 53 | 1015.8 |
| 20260507015603 | 16 | 81 | 14.5 | 17.7 | 0.00 | 0.00 | 0.00 | 53 | 1015.9 |
| 20260507015505 | 16 | 76 | 14.5 | 17.7 | 0.00 | 0.00 | 0.00 | 54 | 1015.9 |
| 20260507015404 | 16 | 75 | 14.5 | 17.7 | 0.00 | 0.00 | 0.00 | 54 | 1015.9 |
| 20260507015306 | 16 | 74 | 14.5 | 19.3 | 0.00 | 0.00 | 0.00 | 55 | 1015.9 |
| 20260507015202 | 15 | 69 | 14.5 | 19.3 | 0.00 | 0.00 | 0.00 | 55 | 1015.9 |
| 20260507015102 | 15 | 88 | 14.5 | 19.3 | 0.00 | 0.00 | 0.00 | 56 | 1016.0 |
| 20260507015003 | 15 | 74 | 14.5 | 19.3 | 0.00 | 0.00 | 0.00 | 56 | 1016.0 |
| 20260507014904 | 15 | 80 | 14.5 | 19.3 | 0.00 | 0.00 | 0.00 | 56 | 1016.0 |
| 20260507014806 | 15 | 69 | 14.5 | 19.3 | 0.00 | 0.00 | 0.00 | 57 | 1016.1 |
| 20260507014704 | 15 | 84 | 14.5 | 19.3 | 0.00 | 0.00 | 0.00 | 57 | 1016.0 |
| 20260507014603 | 15 | 86 | 14.5 | 19.3 | 0.00 | 0.00 | 0.00 | 57 | 1016.1 |
| 20260507014504 | 15 | 74 | 14.5 | 19.3 | 0.00 | 0.00 | 0.00 | 57 | 1016.0 |
| 20260507014403 | 15 | 76 | 14.5 | 19.3 | 0.00 | 0.00 | 0.00 | 58 | 1016.0 |
| 20260507014304 | 16 | 75 | 14.5 | 19.3 | 0.00 | 0.00 | 0.00 | 58 | 1016.1 |
| 20260507014204 | 16 | 75 | 14.5 | 17.7 | 0.00 | 0.00 | 0.00 | 58 | 1016.0 |
| 20260507014104 | 16 | 79 | 14.5 | 17.7 | 0.00 | 0.00 | 0.00 | 59 | 1016.0 |
| 20260507014004 | 16 | 80 | 12.9 | 17.7 | 0.00 | 0.00 | 0.00 | 60 | 1015.9 |
| 20260507013904 | 16 | 83 | 12.9 | 17.7 | 0.00 | 0.00 | 0.00 | 60 | 1016.0 |
| 20260507013805 | 16 | 75 | 11.3 | 17.7 | 0.00 | 0.00 | 0.00 | 61 | 1016.1 |
| 20260507013703 | 16 | 81 | 11.3 | 17.7 | 0.00 | 0.00 | 0.00 | 61 | 1016.0 |
| 20260507013602 | 16 | 74 | 9.7 | 17.7 | 0.00 | 0.00 | 0.00 | 61 | 1016.0 |
| 20260507013503 | 16 | 79 | 9.7 | 17.7 | 0.00 | 0.00 | 0.00 | 63 | 1016.1 |
| 20260507013402 | 16 | 76 | 8.0 | 16.1 | 0.00 | 0.00 | 0.00 | 63 | 1016.1 |
| 20260507013304 | 16 | 79 | 6.4 | 16.1 | 0.00 | 0.00 | 0.00 | 64 | 1016.1 |
| 20260507013204 | 16 | 75 | 6.4 | 16.1 | 0.00 | 0.00 | 0.00 | 64 | 1016.1 |
| 20260507013103 | 16 | 73 | 4.8 | 14.5 | 0.00 | 0.00 | 0.00 | 65 | 1016.1 |
| 20260507013008 | 16 | 78 | 4.8 | 12.9 | 0.00 | 0.00 | 0.00 | 66 | 1016.1 |
| 20260507012904 | 16 | 83 | 4.8 | 8.0 | 0.00 | 0.00 | 0.00 | 66 | 1016.2 |
| 20260507012807 | 16 | 74 | 4.8 | 8.0 | 0.00 | 0.00 | 0.00 | 66 | 1016.2 |
| 20260507012702 | 16 | 83 | 4.8 | 8.0 | 0.00 | 0.00 | 0.00 | 66 | 1016.2 |
| 20260507012603 | 16 | 76 | 4.8 | 8.0 | 0.00 | 0.00 | 0.00 | 66 | 1016.2 |
| 20260507012504 | 16 | 78 | 3.2 | 6.4 | 0.00 | 0.00 | 0.00 | 66 | 1016.3 |
| 20260507012404 | 16 | 75 | 3.2 | 6.4 | 0.00 | 0.00 | 0.00 | 66 | 1016.4 |
| 20260507012306 | 16 | 73 | 4.8 | 6.4 | 0.00 | 0.00 | 0.00 | 66 | 1016.3 |
| 20260507012206 | 16 | 73 | 4.8 | 6.4 | 0.00 | 0.00 | 0.00 | 65 | 1016.3 |
| 20260507012103 | 16 | 73 | 4.8 | 8.0 | 0.00 | 0.00 | 0.00 | 65 | 1016.3 |
| 20260507012002 | 16 | 72 | 4.8 | 8.0 | 0.00 | 0.00 | 0.00 | 65 | 1016.3 |
| 20260507011902 | 16 | 70 | 4.8 | 8.0 | 0.00 | 0.00 | 0.00 | 65 | 1016.4 |
| 20260507011806 | 16 | 69 | 4.8 | 9.7 | 0.00 | 0.00 | 0.00 | 65 | 1016.4 |
| 20260507011702 | 16 | 69 | 4.8 | 9.7 | 0.00 | 0.00 | 0.00 | 64 | 1016.4 |
| 20260507011603 | 16 | 69 | 6.4 | 11.3 | 0.00 | 0.00 | 0.00 | 63 | 1016.4 |
| 20260507011504 | 16 | 69 | 6.4 | 11.3 | 0.00 | 0.00 | 0.00 | 63 | 1016.4 |
| 20260507011402 | 16 | 70 | 6.4 | 11.3 | 0.00 | 0.00 | 0.00 | 63 | 1016.3 |
| 20260507011303 | 16 | 76 | 8.0 | 12.9 | 0.00 | 0.00 | 0.00 | 62 | 1016.4 |
| 20260507011204 | 16 | 71 | 8.0 | 14.5 | 0.00 | 0.00 | 0.00 | 62 | 1016.4 |
| 20260507011102 | 16 | 68 | 9.7 | 16.1 | 0.00 | 0.00 | 0.00 | 62 | 1016.4 |
| 20260507011002 | 16 | 78 | 9.7 | 16.1 | 0.00 | 0.00 | 0.00 | 61 | 1016.5 |
| 20260507010902 | 16 | 79 | 11.3 | 16.1 | 0.00 | 0.00 | 0.00 | 61 | 1016.4 |
| 20260507010805 | 16 | 74 | 11.3 | 16.1 | 0.00 | 0.00 | 0.00 | 61 | 1016.4 |
| 20260507010704 | 16 | 79 | 11.3 | 16.1 | 0.00 | 0.00 | 0.00 | 61 | 1016.4 |
| 20260507010602 | 16 | 70 | 11.3 | 16.1 | 0.00 | 0.00 | 0.00 | 61 | 1016.4 |
| 20260507010502 | 16 | 72 | 11.3 | 16.1 | 0.00 | 0.00 | 0.00 | 61 | 1016.3 |
| 20260507010402 | 16 | 83 | 11.3 | 16.1 | 0.00 | 0.00 | 0.00 | 61 | 1016.3 |
| 20260507010304 | 16 | 79 | 9.7 | 16.1 | 0.00 | 0.00 | 0.00 | 61 | 1016.2 |
| 20260507010203 | 16 | 76 | 9.7 | 16.1 | 0.00 | 0.00 | 0.00 | 61 | 1016.1 |
| 20260507010003 | 16 | 87 | 8.0 | 14.5 | 0.00 | 0.00 | 0.00 | 62 | 1016.1 |
| 20260507005903 | 16 | 81 | 8.0 | 14.5 | 0.00 | 0.00 | 0.00 | 62 | 1016.1 |
| 20260507005804 | 16 | 78 | 6.4 | 12.9 | 0.00 | 0.00 | 0.00 | 62 | 1016.1 |
| 20260507005703 | 16 | 79 | 6.4 | 12.9 | 0.00 | 0.00 | 0.00 | 62 | 1016.3 |
| 20260507005604 | 16 | 79 | 6.4 | 11.3 | 0.00 | 0.00 | 0.00 | 63 | 1016.2 |
| 20260507005503 | 16 | 74 | 6.4 | 11.3 | 0.00 | 0.00 | 0.00 | 63 | 1016.3 |
| 20260507005405 | 16 | 76 | 6.4 | 8.0 | 0.00 | 0.00 | 0.00 | 63 | 1016.3 |
| 20260507005305 | 16 | 83 | 6.4 | 8.0 | 0.00 | 0.00 | 0.00 | 63 | 1016.3 |
| 20260507005202 | 16 | 79 | 6.4 | 8.0 | 0.00 | 0.00 | 0.00 | 63 | 1016.4 |
| 20260507005103 | 16 | 80 | 6.4 | 8.0 | 0.00 | 0.00 | 0.00 | 63 | 1016.3 |
| 20260507005004 | 16 | 71 | 6.4 | 8.0 | 0.00 | 0.00 | 0.00 | 63 | 1016.4 |
| 20260507004902 | 16 | 76 | 6.4 | 8.0 | 0.00 | 0.00 | 0.00 | 63 | 1016.3 |
| 20260507004702 | 16 | 74 | 6.4 | 8.0 | 0.00 | 0.00 | 0.00 | 63 | 1016.3 |
| 20260507004604 | 16 | 69 | 4.8 | 8.0 | 0.00 | 0.00 | 0.00 | 64 | 1016.4 |
| 20260507004505 | 16 | 73 | 4.8 | 8.0 | 0.00 | 0.00 | 0.00 | 64 | 1016.3 |
| 20260507004403 | 16 | 62 | 4.8 | 8.0 | 0.00 | 0.00 | 0.00 | 64 | 1016.3 |
| 20260507004302 | 16 | 82 | 4.8 | 8.0 | 0.00 | 0.00 | 0.00 | 64 | 1016.3 |
| 20260507004201 | 16 | 77 | 3.2 | 8.0 | 0.00 | 0.00 | 0.00 | 65 | 1016.3 |
| 20260507004104 | 16 | 73 | 3.2 | 8.0 | 0.00 | 0.00 | 0.00 | 65 | 1016.3 |
| 20260507004002 | 16 | 76 | 3.2 | 8.0 | 0.00 | 0.00 | 0.00 | 66 | 1016.2 |
| 20260507003909 | 16 | 75 | 3.2 | 8.0 | 0.00 | 0.00 | 0.00 | 66 | 1016.3 |